M I D A S
Marine Information and Data Acquisition System
Tripno 1118 of the Zeeleeuw from 2006-06-29 07:09:02 to 2006-06-29 13:32:01
Back to CruiseResearch ActivitiesStationsMapUnderway DataData graphs

EquipmentUnitsComment
TimeDGPSUTC
LatitudeDGPSDM.mWGS84
LongitudeDGPSDM.mWGS84
TemperatureSBE03/SBE38deg celciusITS90
ConductivitySBE21S/mITS90
SalinitySBE21 Practical Salinity Units
ChlorophylAChelsea fluorimeterg/lCalibrated in Aceton
Missing or incorrect values are displayed as -999
Sea surface data collected by the RV Zeeleeuw from 2006-06-29 07:06:38 to 2006-06-29 13:42:49
                                                                                    Next 1000 lines
Time Latitude Longitude Temperature Conductivity Salinity ChlorophylA
2006-06-29 07:06:48 51°13.603 2°56.095 21.98 0.007057 0.04031 5.657247
2006-06-29 07:06:54 51°13.603 2°56.092 22.0085 0.007057 0.04031 5.657247
2006-06-29 07:06:59 51°13.604 2°56.089 22.0237 0.007057 0.04031 5.657247
2006-06-29 07:07:02 51°13.604 2°56.087 22.0182 0.007057 0.04031 5.657247
2006-06-29 07:07:10 51°13.606 2°56.081 22.0179 0.007057 0.04031 5.657247
2006-06-29 07:07:14 51°13.607 2°56.078 22.0345 0.007057 0.04031 5.657247
2006-06-29 07:07:20 51°13.609 2°56.072 22.0259 0.007057 0.04031 5.657247
2006-06-29 07:07:24 51°13.61 2°56.069 22.032 0.007057 0.04031 5.657247
2006-06-29 07:07:29 51°13.611 2°56.063 22.0343 0.007057 0.04031 5.623537
2006-06-29 07:07:34 51°13.613 2°56.058 22.0297 0.007057 0.04031 5.623537
2006-06-29 07:07:39 51°13.615 2°56.052 22.0306 0.007057 0.04031 5.623537
2006-06-29 07:07:43 51°13.616 2°56.048 22.0338 0.007057 0.04031 5.657247
2006-06-29 07:07:50 51°13.619 2°56.039 22.0326 0.007057 0.04031 5.623537
2006-06-29 07:07:54 51°13.62 2°56.034 22.0313 0.007057 0.04031 5.623537
2006-06-29 07:07:59 51°13.622 2°56.028 22.0365 0.007057 0.04031 5.623537
2006-06-29 07:08:04 51°13.625 2°56.021 22.0367 0.007057 0.04031 5.657247
2006-06-29 07:08:10 51°13.627 2°56.013 22.0472 0.007057 0.04031 5.657247
2006-06-29 07:08:14 51°13.629 2°56.008 22.0448 0.007057 0.04031 5.657247
2006-06-29 07:08:19 51°13.631 2°56.001 22.0396 0.007057 0.04031 5.657247
2006-06-29 07:08:24 51°13.633 2°55.993 22.0365 0.007057 0.04031 5.657247
2006-06-29 07:08:30 51°13.635 2°55.984 22.0294 0.007057 0.04031 5.623537
2006-06-29 07:08:34 51°13.637 2°55.978 22.0419 0.007057 0.040309 5.657247
2006-06-29 07:08:39 51°13.639 2°55.969 22.0425 0.007057 0.040309 5.657247
2006-06-29 07:08:44 51°13.642 2°55.961 22.0524 0.007057 0.04031 5.657247
2006-06-29 07:08:49 51°13.645 2°55.951 22.0517 0.007057 0.04031 5.657247
2006-06-29 07:08:54 51°13.648 2°55.942 22.0473 0.007057 0.040309 5.657247
2006-06-29 07:09:00 51°13.652 2°55.929 22.0576 0.007057 0.04031 5.657247
2006-06-29 07:09:03 51°13.654 2°55.924 22.0641 0.007057 0.04031 5.657247
2006-06-29 07:09:09 51°13.658 2°55.911 22.0714 0.007057 0.04031 5.657247
2006-06-29 07:09:14 51°13.661 2°55.9 22.0835 0.007057 0.04031 5.623537
2006-06-29 07:09:19 51°13.665 2°55.889 22.0744 0.007057 0.04031 5.657247
2006-06-29 07:09:24 51°13.668 2°55.879 22.0714 0.007057 0.040309 5.657247
2006-06-29 07:09:29 51°13.671 2°55.869 22.0678 0.007057 0.040309 5.657247
2006-06-29 07:09:34 51°13.673 2°55.859 22.0629 0.007057 0.040309 5.657247
2006-06-29 07:09:39 51°13.676 2°55.85 22.0663 0.007057 0.040309 5.657247
2006-06-29 07:09:43 51°13.678 2°55.842 22.0665 0.007057 0.040309 5.657247
2006-06-29 07:09:49 51°13.681 2°55.831 22.0697 0.007057 0.040309 5.657247
2006-06-29 07:09:54 51°13.683 2°55.821 22.0677 0.007057 0.040309 5.623537
2006-06-29 07:09:59 51°13.685 2°55.813 22.0598 0.007057 0.040309 5.657247
2006-06-29 07:10:04 51°13.687 2°55.804 22.0533 0.007057 0.040309 5.657247
2006-06-29 07:10:10 51°13.689 2°55.795 22.0405 0.007057 0.040309 5.657247
2006-06-29 07:10:14 51°13.69 2°55.789 22.054 0.007057 0.040309 5.623537
2006-06-29 07:10:19 51°13.691 2°55.783 22.0441 0.007057 0.040309 5.657247
2006-06-29 07:10:23 51°13.692 2°55.778 22.0697 0.007057 0.040309 5.623537
2006-06-29 07:10:29 51°13.692 2°55.773 22.0714 0.007057 0.040308 5.657247
2006-06-29 07:10:34 51°13.693 2°55.77 22.0715 0.007057 0.040308 5.657247
2006-06-29 07:10:38 51°13.693 2°55.768 22.0739 0.007057 0.040308 5.657247
2006-06-29 07:10:42 51°13.694 2°55.766 22.0751 0.007057 0.040308 5.623537
2006-06-29 07:10:49 51°13.694 2°55.764 22.0736 0.007057 0.040308 5.657247
2006-06-29 07:10:54 51°13.695 2°55.764 22.0758 0.007057 0.040308 5.623537
2006-06-29 07:10:59 51°13.695 2°55.764 22.078 0.007057 0.040308 5.623537
2006-06-29 07:11:03 51°13.696 2°55.765 22.0812 0.007057 0.040308 5.657247
2006-06-29 07:11:08 51°13.697 2°55.766 22.0674 0.007057 0.040308 5.657247
2006-06-29 07:11:14 51°13.698 2°55.768 22.0669 0.007057 0.040308 5.657247
2006-06-29 07:11:19 51°13.699 2°55.769 22.0453 0.007057 0.040308 5.623537
2006-06-29 07:11:23 51°13.7 2°55.77 22.0475 0.007057 0.040308 5.623537
2006-06-29 07:11:29 51°13.701 2°55.77 22.0495 0.007057 0.040308 5.657247
2006-06-29 07:11:34 51°13.702 2°55.771 22.0532 0.007057 0.040308 5.623537
2006-06-29 07:11:39 51°13.703 2°55.771 22.053 0.007057 0.040308 5.623537
2006-06-29 07:11:44 51°13.703 2°55.771 22.0421 0.007057 0.040308 5.657247
2006-06-29 07:11:49 51°13.703 2°55.77 22.0402 0.007057 0.040308 5.657247
2006-06-29 07:11:53 51°13.702 2°55.769 22.0896 0.007057 0.040308 5.657247
2006-06-29 07:11:59 51°13.701 2°55.767 22.0838 0.007057 0.040308 5.657247
2006-06-29 07:12:02 51°13.7 2°55.766 22.0815 0.007057 0.040308 5.623537
2006-06-29 07:12:09 51°13.698 2°55.764 22.0866 0.007057 0.040308 5.623537
2006-06-29 07:12:14 51°13.697 2°55.763 22.0862 0.007057 0.040308 5.623537
2006-06-29 07:12:19 51°13.696 2°55.762 22.088 0.007057 0.040308 5.657247
2006-06-29 07:12:23 51°13.696 2°55.761 22.0981 0.007057 0.040308 5.623537
2006-06-29 07:12:30 51°13.697 2°55.761 22.102 0.007057 0.040307 5.623537
2006-06-29 07:12:34 51°13.697 2°55.761 22.1021 0.007057 0.040308 5.657247
2006-06-29 07:12:39 51°13.698 2°55.76 22.1011 0.007057 0.040308 5.657247
2006-06-29 07:12:43 51°13.699 2°55.76 22.1018 0.007057 0.040308 5.623537
2006-06-29 07:12:50 51°13.701 2°55.76 22.1019 0.007057 0.040307 5.623537
2006-06-29 07:12:54 51°13.702 2°55.759 22.1033 0.007057 0.040308 5.623537
2006-06-29 07:12:59 51°13.704 2°55.758 22.1039 0.007057 0.040307 5.657247
2006-06-29 07:13:03 51°13.706 2°55.758 22.1026 0.007057 0.040307 5.623537
2006-06-29 07:13:09 51°13.708 2°55.757 22.1145 0.007057 0.040307 5.623537
2006-06-29 07:13:14 51°13.71 2°55.755 22.1264 0.007057 0.040307 5.657247
2006-06-29 07:13:19 51°13.713 2°55.753 22.1376 0.007057 0.040307 5.657247
2006-06-29 07:13:24 51°13.716 2°55.75 22.1358 0.007057 0.040307 5.657247
2006-06-29 07:13:29 51°13.719 2°55.747 22.1263 0.007057 0.040307 5.623537
2006-06-29 07:13:34 51°13.723 2°55.742 22.1082 0.007057 0.040307 5.657247
2006-06-29 07:13:39 51°13.728 2°55.736 22.0757 0.007057 0.040307 5.657247
2006-06-29 07:13:44 51°13.734 2°55.73 22.0654 0.007057 0.040307 5.657247
2006-06-29 07:13:49 51°13.739 2°55.723 22.0428 0.007057 0.040306 5.623537
2006-06-29 07:13:53 51°13.744 2°55.716 22.0243 0.007057 0.040307 5.623537
2006-06-29 07:13:59 51°13.753 2°55.706 21.968 0.007057 0.040306 5.657247
2006-06-29 07:14:04 51°13.76 2°55.697 21.9309 0.007057 0.040306 5.623537
2006-06-29 07:14:08 51°13.766 2°55.69 21.8734 0.007057 0.040306 5.623537
2006-06-29 07:14:14 51°13.776 2°55.679 21.874 0.007057 0.040306 5.657247
2006-06-29 07:14:18 51°13.783 2°55.672 21.8942 0.007057 0.040306 5.657247
2006-06-29 07:14:24 51°13.794 2°55.661 21.9196 0.007057 0.040306 5.657247
2006-06-29 07:14:29 51°13.803 2°55.653 21.926 0.007057 0.040306 5.657247
2006-06-29 07:14:34 51°13.812 2°55.645 21.9249 0.007057 0.040306 5.657247
2006-06-29 07:14:39 51°13.822 2°55.637 21.9237 0.007057 0.040306 5.657247
2006-06-29 07:14:44 51°13.832 2°55.628 21.9341 0.007057 0.040306 5.657247
2006-06-29 07:14:49 51°13.842 2°55.621 21.9903 0.007057 0.040306 5.657247
2006-06-29 07:14:54 51°13.852 2°55.613 21.9415 0.007057 0.040306 5.623537
2006-06-29 07:14:58 51°13.86 2°55.607 21.9547 0.007057 0.040306 5.657247
2006-06-29 07:15:04 51°13.873 2°55.598 21.9697 0.007057 0.040306 5.657247
2006-06-29 07:15:09 51°13.883 2°55.59 21.9619 0.007057 0.040306 5.657247
2006-06-29 07:15:13 51°13.892 2°55.584 21.9717 0.007057 0.040306 5.623537
2006-06-29 07:15:18 51°13.903 2°55.577 21.9812 0.007057 0.040306 5.657247
2006-06-29 07:15:22 51°13.911 2°55.571 22.0068 0.007057 0.040306 5.657247
2006-06-29 07:15:29 51°13.926 2°55.56 21.9961 0.007057 0.040306 5.657247
2006-06-29 07:15:34 51°13.937 2°55.553 21.9934 0.007057 0.040306 5.623537
2006-06-29 07:15:39 51°13.948 2°55.545 21.9978 0.007057 0.040306 5.623537
2006-06-29 07:15:44 51°13.959 2°55.537 22.0002 0.007057 0.040306 5.623537
2006-06-29 07:15:49 51°13.97 2°55.53 22.0049 0.007057 0.040306 5.623537
2006-06-29 07:15:54 51°13.981 2°55.522 22.0155 0.007057 0.040306 5.657247
2006-06-29 07:15:59 51°13.992 2°55.514 21.9999 0.007057 0.040306 5.657247
2006-06-29 07:16:04 51°14.004 2°55.506 22.029 0.007057 0.040306 5.657247
2006-06-29 07:16:09 51°14.015 2°55.499 22.0422 0.007057 0.040306 5.657247
2006-06-29 07:16:14 51°14.026 2°55.491 22.0432 0.007057 0.040306 5.657247
2006-06-29 07:16:19 51°14.038 2°55.483 22.0391 0.007057 0.040306 5.657247
2006-06-29 07:16:24 51°14.049 2°55.475 22.0523 0.007057 0.040306 5.657247
2006-06-29 07:16:29 51°14.061 2°55.467 22.0526 0.007057 0.040306 5.623537
2006-06-29 07:16:34 51°14.072 2°55.458 22.0214 0.007057 0.040306 5.623537
2006-06-29 07:16:39 51°14.083 2°55.45 22.059 0.007057 0.040306 5.623537
2006-06-29 07:16:44 51°14.095 2°55.442 22.0501 0.007057 0.040306 5.623537
2006-06-29 07:16:49 51°14.106 2°55.433 22.056 0.007057 0.040306 5.657247
2006-06-29 07:16:54 51°14.117 2°55.425 22.0651 0.007057 0.040306 5.657247
2006-06-29 07:16:59 51°14.129 2°55.417 22.1089 0.007057 0.040306 5.623537
2006-06-29 07:17:03 51°14.138 2°55.41 22.1182 0.007057 0.040306 5.657247
2006-06-29 07:17:09 51°14.151 2°55.399 22.1243 0.007057 0.040306 5.657247
2006-06-29 07:17:14 51°14.162 2°55.389 22.1197 0.007057 0.040306 5.657247
2006-06-29 07:17:19 51°14.172 2°55.378 22.1305 0.007057 0.040307 5.623537
2006-06-29 07:17:24 51°14.183 2°55.367 22.1122 0.007057 0.040307 5.623537
2006-06-29 07:17:28 51°14.192 2°55.357 22.1031 0.007057 0.040307 5.623537
2006-06-29 07:17:34 51°14.204 2°55.342 22.0862 0.007057 0.040306 5.623537
2006-06-29 07:17:38 51°14.213 2°55.331 22.079 0.007057 0.040306 5.623537
2006-06-29 07:17:44 51°14.226 2°55.313 22.0641 0.007057 0.040307 5.657247
2006-06-29 07:17:48 51°14.234 2°55.3 22.0623 0.007057 0.040307 5.657247
2006-06-29 07:17:54 51°14.247 2°55.281 22.0497 0.007057 0.040307 5.657247
2006-06-29 07:17:59 51°14.258 2°55.264 22.0384 0.007057 0.040307 5.657247
2006-06-29 07:18:03 51°14.266 2°55.25 22.0255 0.007057 0.040307 5.623537
2006-06-29 07:18:08 51°14.277 2°55.232 22.0288 0.007057 0.040307 5.623537
2006-06-29 07:18:14 51°14.289 2°55.21 21.9185 0.007057 0.040307 5.623537
2006-06-29 07:18:18 51°14.298 2°55.194 21.9332 0.007057 0.040307 5.623537
2006-06-29 07:18:22 51°14.306 2°55.179 22.0641 0.007057 0.040307 5.657247
2006-06-29 07:18:29 51°14.322 2°55.152 21.9608 0.007057 0.040307 5.657247
2006-06-29 07:18:34 51°14.332 2°55.131 21.986 0.007057 0.040307 5.657247
2006-06-29 07:18:39 51°14.343 2°55.111 22.0183 0.007057 0.040307 5.657247
2006-06-29 07:18:43 51°14.351 2°55.094 22.0186 0.007057 0.040307 5.623537
2006-06-29 07:18:48 51°14.361 2°55.073 21.9796 0.007057 0.040307 5.623537
2006-06-29 07:18:54 51°14.374 2°55.048 21.9747 0.007057 0.040307 5.657247
2006-06-29 07:18:58 51°14.382 2°55.03 21.9832 0.007057 0.040307 5.657247
2006-06-29 07:19:02 51°14.39 2°55.012 21.9351 0.007057 0.040308 5.623537
2006-06-29 07:19:09 51°14.403 2°54.98 21.9607 0.007057 0.040308 5.623537
2006-06-29 07:19:14 51°14.413 2°54.957 22.0399 0.007057 0.040308 5.657247
2006-06-29 07:19:18 51°14.42 2°54.939 22.0438 0.007057 0.040309 5.623537
2006-06-29 07:19:24 51°14.431 2°54.909 22.0646 0.007057 0.040309 5.657247
2006-06-29 07:19:29 51°14.439 2°54.884 22.0771 0.007057 0.04031 5.657247
2006-06-29 07:19:34 51°14.445 2°54.858 22.02 0.007057 0.04031 5.657247
2006-06-29 07:19:39 51°14.451 2°54.83 22.0642 0.007057 0.04031 5.657247
2006-06-29 07:19:44 51°14.456 2°54.802 21.9714 0.007057 0.04031 5.657247
2006-06-29 07:19:49 51°14.46 2°54.774 21.9943 0.007057 0.040311 5.623537
2006-06-29 07:19:54 51°14.462 2°54.745 22.0104 0.007057 0.040311 5.657247
2006-06-29 07:19:59 51°14.464 2°54.715 21.9996 0.007057 0.040311 5.623537
2006-06-29 07:20:04 51°14.465 2°54.685 22.0261 0.007057 0.040311 5.623537
2006-06-29 07:20:09 51°14.465 2°54.656 21.9385 0.007057 0.040311 5.623537
2006-06-29 07:20:14 51°14.465 2°54.626 21.9698 0.007057 0.040312 5.623537
2006-06-29 07:20:19 51°14.463 2°54.595 21.9467 0.007057 0.040312 5.623537
2006-06-29 07:20:24 51°14.462 2°54.565 21.9948 0.007057 0.040312 5.657247
2006-06-29 07:20:29 51°14.46 2°54.535 21.9757 0.007057 0.040312 5.623537
2006-06-29 07:20:34 51°14.457 2°54.505 21.9825 0.007057 0.040313 5.623537
2006-06-29 07:20:39 51°14.454 2°54.474 21.9972 0.007057 0.040313 5.623537
2006-06-29 07:20:44 51°14.45 2°54.444 21.9968 0.007057 0.040313 5.623537
2006-06-29 07:20:47 51°14.447 2°54.426 22.012 0.007057 0.040314 5.623537
2006-06-29 07:20:54 51°14.441 2°54.385 21.9211 0.007057 0.040314 5.623537
2006-06-29 07:20:58 51°14.435 2°54.363 21.9897 0.007057 0.040314 5.657247
2006-06-29 07:21:04 51°14.426 2°54.328 22.0001 0.007057 0.040315 5.623537
2006-06-29 07:21:08 51°14.42 2°54.306 21.8649 0.007057 0.040315 5.623537
2006-06-29 07:21:14 51°14.41 2°54.274 21.9507 0.007057 0.040316 5.657247
2006-06-29 07:21:19 51°14.401 2°54.248 21.9183 0.007057 0.040316 5.623537
2006-06-29 07:21:24 51°14.392 2°54.221 21.98 0.007057 0.040316 5.589828
2006-06-29 07:21:26 51°14.389 2°54.21 21.969 0.007057 0.040317 5.623537
2006-06-29 07:21:34 51°14.374 2°54.168 21.88 0.007057 0.040318 5.657247
2006-06-29 07:21:39 51°14.365 2°54.141 21.9268 0.007057 0.040318 5.657247
2006-06-29 07:21:44 51°14.354 2°54.114 21.9677 0.007057 0.040318 5.623537
2006-06-29 07:21:49 51°14.345 2°54.088 21.9387 0.007057 0.040318 5.623537
2006-06-29 07:21:54 51°14.335 2°54.062 21.8723 0.007057 0.040319 5.623537
2006-06-29 07:21:59 51°14.325 2°54.036 21.936 0.007057 0.040319 5.657247
2006-06-29 07:22:04 51°14.315 2°54.009 21.9693 0.007057 0.040319 5.623537
2006-06-29 07:22:09 51°14.304 2°53.984 21.9297 0.007057 0.040319 5.623537
2006-06-29 07:22:14 51°14.294 2°53.958 21.9807 0.007057 0.04032 5.623537
2006-06-29 07:22:19 51°14.283 2°53.933 21.9484 0.007057 0.040321 5.623537
2006-06-29 07:22:23 51°14.274 2°53.913 21.9062 0.007057 0.040321 5.623537
2006-06-29 07:22:27 51°14.265 2°53.892 21.9098 0.007057 0.040322 5.657247
2006-06-29 07:22:34 51°14.249 2°53.859 21.9114 0.007057 0.040323 5.623537
2006-06-29 07:22:39 51°14.238 2°53.834 21.8645 0.007057 0.040323 5.623537
2006-06-29 07:22:44 51°14.225 2°53.809 21.9438 0.007057 0.040323 5.623537
2006-06-29 07:22:49 51°14.214 2°53.784 21.8535 0.007057 0.040323 5.623537
2006-06-29 07:22:53 51°14.205 2°53.765 21.9475 0.007057 0.040324 5.623537
2006-06-29 07:22:59 51°14.192 2°53.735 21.9439 0.007057 0.040323 5.623537
2006-06-29 07:23:04 51°14.18 2°53.71 21.87 0.007057 0.040324 5.623537
2006-06-29 07:23:09 51°14.17 2°53.684 21.861 0.007057 0.040324 5.623537
2006-06-29 07:23:14 51°14.158 2°53.659 21.8773 0.007057 0.040324 5.623537
2006-06-29 07:23:19 51°14.149 2°53.632 21.8884 0.007057 0.040325 5.623537
2006-06-29 07:23:24 51°14.138 2°53.606 21.8687 0.007057 0.040325 5.623537
2006-06-29 07:23:29 51°14.13 2°53.578 21.9528 0.007057 0.040326 5.623537
2006-06-29 07:23:33 51°14.122 2°53.558 21.9158 0.007057 0.040327 5.623537
2006-06-29 07:23:39 51°14.111 2°53.525 21.959 0.007057 0.040327 5.623537
2006-06-29 07:23:43 51°14.104 2°53.503 21.9141 0.007057 0.040327 5.657247
2006-06-29 07:23:49 51°14.093 2°53.471 21.9239 0.007057 0.040328 5.623537
2006-06-29 07:23:53 51°14.085 2°53.449 21.9574 0.007057 0.040328 5.657247
2006-06-29 07:23:59 51°14.073 2°53.417 21.8734 0.007057 0.040328 5.657247
2006-06-29 07:24:04 51°14.062 2°53.391 21.8994 0.007057 0.040329 5.623537
2006-06-29 07:24:09 51°14.054 2°53.364 21.9066 0.007057 0.040329 5.623537
2006-06-29 07:24:14 51°14.042 2°53.339 21.9243 0.007057 0.040328 5.657247
2006-06-29 07:24:18 51°14.035 2°53.317 21.9252 0.007057 0.040329 5.657247
2006-06-29 07:24:23 51°14.025 2°53.292 21.9407 0.007057 0.040329 5.623537
2006-06-29 07:24:27 51°14.017 2°53.27 21.8738 0.007057 0.04033 5.623537
2006-06-29 07:24:34 51°14.002 2°53.234 21.9201 0.007057 0.04033 5.623537
2006-06-29 07:24:39 51°13.992 2°53.208 21.8957 0.007057 0.04033 5.623537
2006-06-29 07:24:44 51°13.981 2°53.182 21.9429 0.007057 0.040331 5.623537
2006-06-29 07:24:48 51°13.973 2°53.161 21.9044 0.007057 0.040331 5.657247
2006-06-29 07:24:54 51°13.96 2°53.13 21.9233 0.007057 0.040331 5.623537
2006-06-29 07:24:59 51°13.95 2°53.104 21.928 0.007057 0.040331 5.657247
2006-06-29 07:25:04 51°13.939 2°53.078 21.9093 0.007057 0.040332 5.623537
2006-06-29 07:25:09 51°13.929 2°53.051 21.9359 0.007057 0.040332 5.623537
2006-06-29 07:25:14 51°13.919 2°53.025 21.928 0.007057 0.040332 5.657247
2006-06-29 07:25:19 51°13.908 2°53 21.9275 0.007057 0.040332 5.623537
2006-06-29 07:25:24 51°13.898 2°52.972 21.9481 0.007057 0.040333 5.623537
2006-06-29 07:25:29 51°13.888 2°52.947 21.9608 0.007057 0.040333 5.657247
2006-06-29 07:25:33 51°13.88 2°52.925 21.9173 0.007057 0.040334 5.623537
2006-06-29 07:25:39 51°13.867 2°52.894 21.9678 0.007057 0.040334 5.623537
2006-06-29 07:25:43 51°13.859 2°52.873 21.8838 0.007057 0.040334 5.623537
2006-06-29 07:25:49 51°13.847 2°52.842 21.952 0.007057 0.040335 5.623537
2006-06-29 07:25:53 51°13.838 2°52.821 21.9254 0.007057 0.040335 5.657247
2006-06-29 07:25:59 51°13.825 2°52.79 21.9581 0.007057 0.040335 5.623537
2006-06-29 07:26:04 51°13.815 2°52.764 21.9528 0.007057 0.040335 5.623537
2006-06-29 07:26:09 51°13.803 2°52.74 21.917 0.007057 0.040335 5.623537
2006-06-29 07:26:14 51°13.793 2°52.714 21.9369 0.007057 0.040336 5.657247
2006-06-29 07:26:19 51°13.781 2°52.69 21.926 0.007057 0.040336 5.657247
2006-06-29 07:26:24 51°13.77 2°52.664 21.952 0.007057 0.040336 5.623537
2006-06-29 07:26:29 51°13.759 2°52.64 21.9274 0.007057 0.040336 5.623537
2006-06-29 07:26:33 51°13.75 2°52.62 21.9441 0.007057 0.040336 5.623537
2006-06-29 07:26:39 51°13.737 2°52.589 21.9656 0.007057 0.040336 5.623537
2006-06-29 07:26:42 51°13.73 2°52.574 21.8874 0.007057 0.040337 5.623537
2006-06-29 07:26:49 51°13.716 2°52.537 21.942 0.007057 0.040337 5.623537
2006-06-29 07:26:54 51°13.707 2°52.51 21.9199 0.007057 0.040337 5.623537
2006-06-29 07:26:58 51°13.699 2°52.489 21.9548 0.007057 0.040338 5.623537
2006-06-29 07:27:04 51°13.689 2°52.455 21.9619 0.007057 0.040337 5.589828
2006-06-29 07:27:09 51°13.68 2°52.428 21.9666 0.007057 0.040337 5.589828
2006-06-29 07:27:13 51°13.673 2°52.406 21.9711 0.007057 0.040338 5.623537
2006-06-29 07:27:19 51°13.664 2°52.372 21.9037 0.007057 0.040339 5.657247
2006-06-29 07:27:23 51°13.657 2°52.35 21.9764 0.007057 0.040339 5.623537
2006-06-29 07:27:28 51°13.649 2°52.321 21.9558 0.007057 0.040339 5.623537
2006-06-29 07:27:34 51°13.64 2°52.288 21.9746 0.007057 0.040339 5.657247
2006-06-29 07:27:38 51°13.633 2°52.265 21.9653 0.007057 0.040339 5.657247
2006-06-29 07:27:44 51°13.623 2°52.231 21.9669 0.007057 0.040339 5.623537
2006-06-29 07:27:48 51°13.616 2°52.209 21.9694 0.007057 0.04034 5.623537
2006-06-29 07:27:54 51°13.606 2°52.176 21.948 0.007057 0.04034 5.623537
2006-06-29 07:27:59 51°13.597 2°52.148 21.9823 0.007057 0.04034 5.623537
2006-06-29 07:28:04 51°13.589 2°52.12 21.9731 0.007057 0.04034 5.623537
2006-06-29 07:28:09 51°13.581 2°52.092 21.983 0.007057 0.04034 5.623537
2006-06-29 07:28:14 51°13.572 2°52.064 21.9179 0.007057 0.04034 5.623537
2006-06-29 07:28:19 51°13.564 2°52.037 21.9497 0.007057 0.040341 5.623537
2006-06-29 07:28:24 51°13.555 2°52.008 21.9748 0.007057 0.04034 5.623537
2006-06-29 07:28:29 51°13.546 2°51.981 21.9825 0.007057 0.040341 5.623537
2006-06-29 07:28:34 51°13.537 2°51.954 22.0077 0.007057 0.040341 5.657247
2006-06-29 07:28:39 51°13.527 2°51.927 21.981 0.007057 0.040341 5.657247
2006-06-29 07:28:44 51°13.518 2°51.9 21.996 0.007057 0.040341 5.623537
2006-06-29 07:28:49 51°13.508 2°51.874 21.9395 0.007057 0.040342 5.623537
2006-06-29 07:28:54 51°13.498 2°51.847 21.9875 0.007057 0.040342 5.657247
2006-06-29 07:28:59 51°13.488 2°51.82 21.8979 0.007057 0.040342 5.657247
2006-06-29 07:29:03 51°13.479 2°51.799 21.9955 0.007057 0.040342 5.623537
2006-06-29 07:29:09 51°13.467 2°51.768 21.9419 0.007057 0.040342 5.623537
2006-06-29 07:29:14 51°13.457 2°51.742 21.9916 0.007057 0.040343 5.623537
2006-06-29 07:29:19 51°13.447 2°51.715 21.9563 0.007057 0.040343 5.623537
2006-06-29 07:29:24 51°13.437 2°51.688 21.9706 0.007057 0.040344 5.623537
2006-06-29 07:29:28 51°13.429 2°51.666 21.9723 0.007057 0.040344 5.623537
2006-06-29 07:29:34 51°13.419 2°51.634 21.9447 0.007057 0.040344 5.623537
2006-06-29 07:29:38 51°13.411 2°51.612 21.9827 0.007057 0.040344 5.623537
2006-06-29 07:29:44 51°13.401 2°51.578 21.9879 0.007057 0.040344 5.623537
2006-06-29 07:29:48 51°13.393 2°51.556 21.9908 0.007057 0.040344 5.623537
2006-06-29 07:29:54 51°13.383 2°51.524 21.9754 0.007057 0.040345 5.623537
2006-06-29 07:29:59 51°13.375 2°51.496 21.9893 0.007057 0.040345 5.623537
2006-06-29 07:30:04 51°13.366 2°51.467 21.9518 0.007057 0.040346 5.623537
2006-06-29 07:30:09 51°13.357 2°51.44 22.0209 0.007057 0.040346 5.623537
2006-06-29 07:30:14 51°13.349 2°51.413 21.9557 0.007057 0.040346 5.623537
2006-06-29 07:30:19 51°13.339 2°51.386 22.0124 0.007057 0.040346 5.623537
2006-06-29 07:30:24 51°13.33 2°51.358 21.9361 0.007057 0.040346 5.623537
2006-06-29 07:30:29 51°13.32 2°51.332 21.9981 0.007057 0.040346 5.623537
2006-06-29 07:30:33 51°13.313 2°51.31 21.9745 0.007057 0.040347 5.623537
2006-06-29 07:30:39 51°13.301 2°51.279 22.0037 0.007057 0.040347 5.623537
2006-06-29 07:30:43 51°13.293 2°51.257 22.0081 0.007057 0.040347 5.623537
2006-06-29 07:30:49 51°13.28 2°51.227 21.9942 0.007057 0.040348 5.623537
2006-06-29 07:30:53 51°13.271 2°51.206 21.9808 0.007057 0.040347 5.623537
2006-06-29 07:30:59 51°13.258 2°51.175 21.9973 0.007057 0.040348 5.623537
2006-06-29 07:31:04 51°13.247 2°51.15 21.9637 0.007057 0.040348 5.623537
2006-06-29 07:31:09 51°13.237 2°51.124 21.9876 0.007057 0.040348 5.623537
2006-06-29 07:31:14 51°13.226 2°51.098 21.9683 0.007057 0.040348 5.623537
2006-06-29 07:31:18 51°13.218 2°51.077 21.9687 0.007057 0.040348 5.623537
2006-06-29 07:31:23 51°13.208 2°51.05 21.9964 0.007057 0.040348 5.623537
2006-06-29 07:31:27 51°13.201 2°51.029 21.9462 0.007057 0.040348 5.589828
2006-06-29 07:31:34 51°13.187 2°50.991 22.0001 0.007057 0.040348 5.589828
2006-06-29 07:31:39 51°13.178 2°50.964 21.9781 0.007057 0.040348 5.589828
2006-06-29 07:31:44 51°13.168 2°50.937 22.0089 0.007057 0.040348 5.623537
2006-06-29 07:31:48 51°13.161 2°50.915 22.0056 0.007057 0.040349 5.623537
2006-06-29 07:31:54 51°13.15 2°50.883 22.0126 0.007057 0.040349 5.623537
2006-06-29 07:31:59 51°13.14 2°50.856 21.9713 0.007057 0.040349 5.657247
2006-06-29 07:32:04 51°13.131 2°50.828 21.9843 0.007057 0.040349 5.623537
2006-06-29 07:32:09 51°13.122 2°50.801 22.0102 0.007057 0.040349 5.623537
2006-06-29 07:32:14 51°13.113 2°50.774 22.0091 0.007057 0.040349 5.623537
2006-06-29 07:32:19 51°13.104 2°50.747 22.0108 0.007057 0.040349 5.657247
2006-06-29 07:32:24 51°13.094 2°50.719 21.9771 0.007057 0.040349 5.589828
2006-06-29 07:32:29 51°13.085 2°50.692 22.0316 0.007057 0.04035 5.623537
2006-06-29 07:32:33 51°13.078 2°50.67 22.0347 0.007057 0.04035 5.623537
2006-06-29 07:32:39 51°13.066 2°50.638 21.9879 0.007057 0.04035 5.623537
2006-06-29 07:32:43 51°13.059 2°50.616 21.9939 0.007057 0.04035 5.623537
2006-06-29 07:32:49 51°13.047 2°50.584 22.0299 0.007057 0.04035 5.623537
2006-06-29 07:32:53 51°13.039 2°50.563 22.0003 0.007057 0.040351 5.623537
2006-06-29 07:32:59 51°13.027 2°50.531 22.0376 0.007057 0.040351 5.623537
2006-06-29 07:33:04 51°13.016 2°50.505 21.9725 0.007057 0.040351 5.623537
2006-06-29 07:33:09 51°13.005 2°50.479 22.0112 0.007057 0.040351 5.623537
2006-06-29 07:33:14 51°12.994 2°50.454 22.0091 0.007057 0.040352 5.623537
2006-06-29 07:33:18 51°12.986 2°50.433 21.9916 0.007057 0.040352 5.623537
2006-06-29 07:33:22 51°12.977 2°50.413 22.0229 0.007057 0.040352 5.623537
2006-06-29 07:33:29 51°12.963 2°50.376 22.0241 0.007057 0.040352 5.623537
2006-06-29 07:33:34 51°12.953 2°50.35 21.9741 0.007057 0.040352 5.589828
2006-06-29 07:33:39 51°12.943 2°50.323 22.0076 0.007057 0.040352 5.589828
2006-06-29 07:33:44 51°12.933 2°50.296 21.9742 0.007057 0.040353 5.623537
2006-06-29 07:33:49 51°12.923 2°50.27 22.0111 0.007057 0.040353 5.589828
2006-06-29 07:33:54 51°12.916 2°50.246 22.0352 0.007057 0.040352 5.623537
2006-06-29 07:33:59 51°12.906 2°50.22 22.0104 0.007057 0.040353 5.623537
2006-06-29 07:34:04 51°12.897 2°50.192 22.0322 0.007057 0.040353 5.623537
2006-06-29 07:34:08 51°12.89 2°50.171 22.0115 0.007057 0.040353 5.623537
2006-06-29 07:34:14 51°12.879 2°50.138 22.0421 0.007057 0.040354 5.623537
2006-06-29 07:34:20 51°12.868 2°50.106 22.0126 0.007057 0.040354 5.623537
2006-06-29 07:34:24 51°12.86 2°50.084 22.0244 0.007057 0.040354 5.657247
2006-06-29 07:34:30 51°12.849 2°50.051 22.0185 0.007057 0.040354 5.589828
2006-06-29 07:34:35 51°12.839 2°50.024 22.0456 0.007057 0.040354 5.623537
2006-06-29 07:34:40 51°12.83 2°49.997 22.0238 0.007057 0.040354 5.623537
2006-06-29 07:34:44 51°12.822 2°49.975 22.0345 0.007057 0.040354 5.623537
2006-06-29 07:34:50 51°12.812 2°49.942 22.0264 0.007057 0.040355 5.623537
2006-06-29 07:34:54 51°12.804 2°49.921 22.0458 0.007057 0.040354 5.623537
2006-06-29 07:35:00 51°12.793 2°49.888 22.0379 0.007057 0.040354 5.623537
2006-06-29 07:35:04 51°12.785 2°49.866 22.0593 0.007057 0.040354 5.623537
2006-06-29 07:35:10 51°12.774 2°49.833 22.0587 0.007057 0.040354 5.623537
2006-06-29 07:35:14 51°12.767 2°49.811 22.0342 0.007057 0.040355 5.623537
2006-06-29 07:35:20 51°12.756 2°49.778 22.0205 0.007057 0.040355 5.589828
2006-06-29 07:35:24 51°12.749 2°49.756 22.0459 0.007057 0.040355 5.623537
2006-06-29 07:35:30 51°12.738 2°49.724 22.0384 0.007057 0.040355 5.589828
2006-06-29 07:35:34 51°12.73 2°49.702 22.0679 0.007057 0.040355 5.623537
2006-06-29 07:35:40 51°12.719 2°49.67 22.0172 0.007057 0.040355 5.623537
2006-06-29 07:35:44 51°12.711 2°49.648 22.0457 0.007057 0.040356 5.623537
2006-06-29 07:35:50 51°12.7 2°49.615 22.0383 0.007057 0.040355 5.623537
2006-06-29 07:35:55 51°12.69 2°49.588 22.0461 0.007057 0.040356 5.623537
2006-06-29 07:36:00 51°12.681 2°49.561 22.0578 0.007057 0.040356 5.623537
2006-06-29 07:36:04 51°12.674 2°49.539 22.0374 0.007057 0.040356 5.623537
2006-06-29 07:36:10 51°12.662 2°49.506 22.0546 0.007057 0.040356 5.623537
2006-06-29 07:36:14 51°12.655 2°49.483 22.0338 0.007057 0.040357 5.623537
2006-06-29 07:36:20 51°12.644 2°49.451 22.0609 0.007057 0.040357 5.623537
2006-06-29 07:36:24 51°12.636 2°49.43 22.0615 0.007057 0.040357 5.623537
2006-06-29 07:36:30 51°12.625 2°49.397 22.0189 0.007057 0.040357 5.623537
2006-06-29 07:36:34 51°12.617 2°49.376 22.0673 0.007057 0.040357 5.589828
2006-06-29 07:36:40 51°12.606 2°49.344 22.0636 0.007057 0.040357 5.589828
2006-06-29 07:36:44 51°12.598 2°49.322 22.0601 0.007057 0.040357 5.589828
2006-06-29 07:36:50 51°12.586 2°49.29 22.0526 0.007057 0.040357 5.623537
2006-06-29 07:36:54 51°12.578 2°49.269 22.0449 0.007057 0.040358 5.623537
2006-06-29 07:37:00 51°12.566 2°49.238 22.0515 0.007057 0.040358 5.623537
2006-06-29 07:37:04 51°12.558 2°49.215 22.0642 0.007057 0.040358 5.623537
2006-06-29 07:37:08 51°12.55 2°49.194 22.0529 0.007057 0.040358 5.623537
2006-06-29 07:37:14 51°12.539 2°49.161 22.0547 0.007057 0.040359 5.589828
2006-06-29 07:37:19 51°12.529 2°49.134 22.0628 0.007057 0.040359 5.623537
2006-06-29 07:37:24 51°12.52 2°49.106 22.0622 0.007057 0.040359 5.623537
2006-06-29 07:37:29 51°12.511 2°49.08 22.0677 0.007057 0.04036 5.623537
2006-06-29 07:37:34 51°12.501 2°49.053 22.0478 0.007057 0.04036 5.589828
2006-06-29 07:37:38 51°12.494 2°49.031 22.0867 0.007057 0.04036 5.589828
2006-06-29 07:37:43 51°12.484 2°49.004 22.0774 0.007057 0.04036 5.623537
2006-06-29 07:37:49 51°12.472 2°48.972 22.0717 0.007057 0.04036 5.623537
2006-06-29 07:37:54 51°12.462 2°48.945 22.0808 0.007057 0.040361 5.589828
2006-06-29 07:37:59 51°12.453 2°48.918 22.0644 0.007057 0.040361 5.623537
2006-06-29 07:38:04 51°12.443 2°48.892 22.0942 0.007057 0.040361 5.657247
2006-06-29 07:38:10 51°12.431 2°48.86 22.0657 0.007057 0.040361 5.657247
2006-06-29 07:38:14 51°12.423 2°48.839 22.1024 0.007057 0.040361 5.623537
2006-06-29 07:38:19 51°12.413 2°48.812 22.0201 0.007057 0.040362 5.589828
2006-06-29 07:38:24 51°12.403 2°48.785 22.0943 0.007057 0.040362 5.623537
2006-06-29 07:38:28 51°12.395 2°48.764 22.0476 0.007057 0.040362 5.623537
2006-06-29 07:38:34 51°12.382 2°48.733 22.0988 0.007057 0.040362 5.623537
2006-06-29 07:38:38 51°12.374 2°48.712 22.0677 0.007057 0.040362 5.623537
2006-06-29 07:38:44 51°12.362 2°48.679 22.0982 0.007057 0.040363 5.623537
2006-06-29 07:38:50 51°12.35 2°48.648 22.0835 0.007057 0.040363 5.623537
2006-06-29 07:38:54 51°12.342 2°48.626 22.1017 0.007057 0.040363 5.589828
2006-06-29 07:39:00 51°12.331 2°48.594 22.1113 0.007057 0.040363 5.623537
2006-06-29 07:39:04 51°12.324 2°48.572 22.0953 0.007057 0.040364 5.623537
2006-06-29 07:39:09 51°12.314 2°48.545 22.0847 0.007057 0.040364 5.623537
2006-06-29 07:39:13 51°12.306 2°48.524 22.097 0.007057 0.040364 5.623537
2006-06-29 07:39:19 51°12.295 2°48.492 22.099 0.007057 0.040364 5.623537
2006-06-29 07:39:24 51°12.285 2°48.464 22.1041 0.007057 0.040364 5.623537
2006-06-29 07:39:27 51°12.279 2°48.448 22.0988 0.007057 0.040365 5.623537
2006-06-29 07:39:34 51°12.267 2°48.41 22.105 0.007057 0.040365 5.623537
2006-06-29 07:39:40 51°12.255 2°48.378 22.063 0.007057 0.040365 5.623537
2006-06-29 07:39:44 51°12.248 2°48.356 22.1104 0.007057 0.040365 5.589828
2006-06-29 07:39:48 51°12.24 2°48.334 22.0862 0.007057 0.040366 5.623537
2006-06-29 07:39:53 51°12.231 2°48.307 22.1164 0.007057 0.040366 5.589828
2006-06-29 07:39:58 51°12.221 2°48.281 22.0788 0.007057 0.040366 5.589828
2006-06-29 07:40:04 51°12.21 2°48.248 22.1069 0.007057 0.040366 5.623537
2006-06-29 07:40:10 51°12.198 2°48.217 22.1059 0.007057 0.040366 5.623537
2006-06-29 07:40:14 51°12.19 2°48.195 22.1094 0.007057 0.040366 5.623537
2006-06-29 07:40:20 51°12.178 2°48.163 22.0958 0.007057 0.040367 5.623537
2006-06-29 07:40:24 51°12.171 2°48.141 22.1063 0.007057 0.040367 5.623537
2006-06-29 07:40:30 51°12.159 2°48.11 22.0853 0.007057 0.040368 5.623537
2006-06-29 07:40:34 51°12.151 2°48.088 22.1177 0.007057 0.040368 5.589828
2006-06-29 07:40:39 51°12.141 2°48.061 22.0892 0.007057 0.040368 5.589828
2006-06-29 07:40:44 51°12.132 2°48.034 22.1152 0.007057 0.040368 5.623537
2006-06-29 07:40:50 51°12.12 2°48.002 22.1283 0.007057 0.040368 5.623537
2006-06-29 07:40:54 51°12.113 2°47.98 22.0847 0.007057 0.040368 5.589828
2006-06-29 07:41:00 51°12.102 2°47.947 22.1318 0.007057 0.040369 5.589828
2006-06-29 07:41:04 51°12.094 2°47.925 22.0978 0.007057 0.040369 5.623537
2006-06-29 07:41:10 51°12.083 2°47.893 22.1295 0.007057 0.040369 5.623537
2006-06-29 07:41:14 51°12.075 2°47.871 22.114 0.007057 0.040369 5.623537
2006-06-29 07:41:20 51°12.064 2°47.839 22.1407 0.007057 0.040369 5.623537
2006-06-29 07:41:24 51°12.056 2°47.817 22.1171 0.007057 0.040369 5.623537
2006-06-29 07:41:28 51°12.048 2°47.796 22.1514 0.007057 0.040369 5.589828
2006-06-29 07:41:34 51°12.036 2°47.763 22.1032 0.007057 0.04037 5.589828
2006-06-29 07:41:39 51°12.026 2°47.736 22.094 0.007057 0.04037 5.589828
2006-06-29 07:41:44 51°12.016 2°47.71 22.145 0.007057 0.04037 5.589828
2006-06-29 07:41:50 51°12.004 2°47.677 22.1057 0.007057 0.04037 5.623537
2006-06-29 07:41:54 51°11.996 2°47.655 22.1367 0.007057 0.04037 5.623537
2006-06-29 07:41:59 51°11.987 2°47.627 22.1248 0.007057 0.04037 5.623537
2006-06-29 07:42:03 51°11.979 2°47.606 22.1223 0.007057 0.040371 5.589828
2006-06-29 07:42:08 51°11.97 2°47.578 22.1554 0.007057 0.040371 5.589828
2006-06-29 07:42:14 51°11.958 2°47.545 22.1172 0.007057 0.040371 5.623537
2006-06-29 07:42:20 51°11.947 2°47.513 22.1331 0.007057 0.040371 5.623537
2006-06-29 07:42:24 51°11.939 2°47.49 22.1163 0.007057 0.040371 5.623537
2006-06-29 07:42:30 51°11.927 2°47.458 22.1143 0.007057 0.040371 5.623537
2006-06-29 07:42:34 51°11.919 2°47.436 22.1415 0.007057 0.040371 5.623537
2006-06-29 07:42:38 51°11.912 2°47.415 22.1388 0.007057 0.040371 5.623537
2006-06-29 07:42:44 51°11.899 2°47.382 22.135 0.007057 0.040371 5.623537
2006-06-29 07:42:50 51°11.888 2°47.35 22.1111 0.007057 0.040372 5.589828
2006-06-29 07:42:54 51°11.88 2°47.328 22.1503 0.007057 0.040372 5.623537
2006-06-29 07:42:59 51°11.871 2°47.3 22.1413 0.007057 0.040372 5.623537
2006-06-29 07:43:04 51°11.861 2°47.273 22.1615 0.007057 0.040372 5.623537
2006-06-29 07:43:08 51°11.854 2°47.25 22.1234 0.007057 0.040372 5.623537
2006-06-29 07:43:14 51°11.842 2°47.218 22.1596 0.007057 0.040373 5.623537
2006-06-29 07:43:20 51°11.83 2°47.185 22.1647 0.007057 0.040373 5.623537
2006-06-29 07:43:23 51°11.825 2°47.168 22.1401 0.007057 0.040373 5.623537
2006-06-29 07:43:30 51°11.811 2°47.129 22.1473 0.007057 0.040373 5.589828
2006-06-29 07:43:34 51°11.804 2°47.107 22.1616 0.007057 0.040373 5.623537
2006-06-29 07:43:40 51°11.793 2°47.074 22.1363 0.007057 0.040373 5.623537
2006-06-29 07:43:44 51°11.785 2°47.052 22.1783 0.007057 0.040374 5.623537
2006-06-29 07:43:49 51°11.776 2°47.024 22.136 0.007057 0.040374 5.623537
2006-06-29 07:43:53 51°11.768 2°47.002 22.1768 0.007057 0.040374 5.623537
2006-06-29 07:43:59 51°11.757 2°46.97 22.1312 0.007057 0.040374 5.623537
2006-06-29 07:44:04 51°11.747 2°46.942 22.1828 0.007057 0.040374 5.589828
2006-06-29 07:44:10 51°11.734 2°46.911 22.1705 0.007057 0.040374 5.589828
2006-06-29 07:44:14 51°11.726 2°46.89 22.1821 0.007057 0.040374 5.589828
2006-06-29 07:44:19 51°11.715 2°46.864 22.1578 0.007057 0.040375 5.623537
2006-06-29 07:44:23 51°11.706 2°46.843 22.1504 0.007057 0.040375 5.623537
2006-06-29 07:44:28 51°11.695 2°46.817 22.1494 0.007057 0.040375 5.589828
2006-06-29 07:44:34 51°11.682 2°46.786 22.154 0.007057 0.040375 5.623537
2006-06-29 07:44:39 51°11.672 2°46.76 22.1291 0.007057 0.040375 5.623537
2006-06-29 07:44:44 51°11.661 2°46.733 22.1416 0.007057 0.040376 5.623537
2006-06-29 07:44:50 51°11.65 2°46.7 22.1661 0.007057 0.040375 5.623537
2006-06-29 07:44:54 51°11.642 2°46.678 22.1613 0.007057 0.040375 5.589828
2006-06-29 07:45:00 51°11.631 2°46.646 22.1575 0.007057 0.040376 5.623537
2006-06-29 07:45:04 51°11.623 2°46.624 22.1627 0.007057 0.040376 5.589828
2006-06-29 07:45:10 51°11.612 2°46.591 22.1865 0.007057 0.040376 5.589828
2006-06-29 07:45:14 51°11.604 2°46.568 22.1589 0.007057 0.040376 5.623537
2006-06-29 07:45:20 51°11.594 2°46.535 22.1924 0.007057 0.040376 5.623537
2006-06-29 07:45:24 51°11.587 2°46.513 22.1462 0.007057 0.040376 5.623537
2006-06-29 07:45:28 51°11.579 2°46.491 22.1914 0.007057 0.040377 5.589828
2006-06-29 07:45:34 51°11.568 2°46.457 22.1908 0.007057 0.040377 5.623537
2006-06-29 07:45:40 51°11.558 2°46.423 22.1847 0.007057 0.040377 5.623537
2006-06-29 07:45:43 51°11.552 2°46.407 22.1498 0.007057 0.040377 5.623537
2006-06-29 07:45:48 51°11.543 2°46.378 22.1971 0.007057 0.040377 5.589828
2006-06-29 07:45:54 51°11.534 2°46.344 22.1523 0.007057 0.040377 5.623537
2006-06-29 07:46:00 51°11.523 2°46.31 22.1853 0.007057 0.040378 5.623537
2006-06-29 07:46:04 51°11.518 2°46.286 22.153 0.007057 0.040378 5.589828
2006-06-29 07:46:09 51°11.509 2°46.258 22.1781 0.007057 0.040378 5.589828
2006-06-29 07:46:14 51°11.501 2°46.229 22.1945 0.007057 0.040377 5.623537
2006-06-29 07:46:20 51°11.491 2°46.196 22.1694 0.007057 0.040378 5.623537
2006-06-29 07:46:24 51°11.485 2°46.172 22.1926 0.007057 0.040379 5.623537
2006-06-29 07:46:28 51°11.478 2°46.149 22.1654 0.007057 0.040379 5.623537
2006-06-29 07:46:34 51°11.469 2°46.115 22.1885 0.007057 0.040379 5.623537
2006-06-29 07:46:39 51°11.461 2°46.086 22.1783 0.007057 0.040379 5.623537
2006-06-29 07:46:44 51°11.453 2°46.056 22.172 0.007057 0.040379 5.623537
2006-06-29 07:46:50 51°11.443 2°46.023 22.1735 0.007057 0.040379 5.623537
2006-06-29 07:46:53 51°11.438 2°46.005 22.1882 0.007057 0.04038 5.623537
2006-06-29 07:46:59 51°11.428 2°45.971 22.2004 0.007057 0.04038 5.589828
2006-06-29 07:47:04 51°11.421 2°45.942 22.2258 0.007057 0.04038 5.623537
2006-06-29 07:47:10 51°11.41 2°45.909 22.1872 0.007057 0.04038 5.623537
2006-06-29 07:47:14 51°11.404 2°45.886 22.1902 0.007057 0.040381 5.623537
2006-06-29 07:47:19 51°11.395 2°45.858 22.2079 0.007057 0.04038 5.589828
2006-06-29 07:47:24 51°11.387 2°45.83 22.1772 0.007057 0.04038 5.623537
2006-06-29 07:47:28 51°11.379 2°45.808 22.1978 0.007057 0.040381 5.623537
2006-06-29 07:47:34 51°11.37 2°45.774 22.2045 0.007057 0.040381 5.589828
2006-06-29 07:47:39 51°11.361 2°45.746 22.2152 0.007057 0.040381 5.589828
2006-06-29 07:47:44 51°11.352 2°45.717 22.1996 0.007057 0.040381 5.589828
2006-06-29 07:47:48 51°11.346 2°45.695 22.2232 0.007057 0.040382 5.623537
2006-06-29 07:47:54 51°11.337 2°45.66 22.1752 0.007057 0.040382 5.623537
2006-06-29 07:47:59 51°11.329 2°45.631 22.208 0.007057 0.040382 5.623537
2006-06-29 07:48:04 51°11.322 2°45.602 22.1945 0.007057 0.040382 5.623537
2006-06-29 07:48:08 51°11.317 2°45.579 22.2032 0.007057 0.040382 5.623537
2006-06-29 07:48:14 51°11.31 2°45.543 22.2166 0.007057 0.040382 5.623537
2006-06-29 07:48:20 51°11.302 2°45.508 22.2238 0.007057 0.040382 5.589828
2006-06-29 07:48:24 51°11.298 2°45.484 22.2099 0.007057 0.040382 5.623537
2006-06-29 07:48:29 51°11.292 2°45.454 22.2234 0.007057 0.040383 5.589828
2006-06-29 07:48:34 51°11.287 2°45.424 22.2228 0.007057 0.040383 5.623537
2006-06-29 07:48:39 51°11.281 2°45.394 22.2297 0.007057 0.040383 5.623537
2006-06-29 07:48:44 51°11.276 2°45.364 22.1864 0.007057 0.040383 5.623537
2006-06-29 07:48:50 51°11.269 2°45.328 22.2283 0.007057 0.040383 5.623537
2006-06-29 07:48:54 51°11.265 2°45.304 22.2236 0.007057 0.040383 5.589828
2006-06-29 07:48:59 51°11.259 2°45.273 22.1895 0.007057 0.040384 5.623537
2006-06-29 07:49:04 51°11.253 2°45.243 22.2421 0.007057 0.040385 5.623537
2006-06-29 07:49:10 51°11.247 2°45.207 22.2132 0.007057 0.040385 5.623537
2006-06-29 07:49:14 51°11.242 2°45.183 22.2185 0.007057 0.040384 5.623537
2006-06-29 07:49:18 51°11.238 2°45.158 22.2451 0.007057 0.040385 5.623537
2006-06-29 07:49:24 51°11.231 2°45.122 22.2122 0.007057 0.040385 5.623537
2006-06-29 07:49:28 51°11.227 2°45.098 22.2265 0.007057 0.040385 5.623537
2006-06-29 07:49:34 51°11.22 2°45.062 22.2291 0.007057 0.040386 5.623537
2006-06-29 07:49:39 51°11.215 2°45.032 22.2298 0.007057 0.040386 5.623537
2006-06-29 07:49:43 51°11.21 2°45.007 22.2417 0.007057 0.040385 5.589828
2006-06-29 07:49:48 51°11.205 2°44.977 22.2514 0.007057 0.040386 5.623537
2006-06-29 07:49:54 51°11.197 2°44.941 22.216 0.007057 0.040386 5.623537
2006-06-29 07:50:00 51°11.191 2°44.905 22.2394 0.007057 0.040386 5.623537
2006-06-29 07:50:04 51°11.186 2°44.881 22.2494 0.007057 0.040386 5.623537
2006-06-29 07:50:09 51°11.18 2°44.851 22.2361 0.007057 0.040386 5.623537
2006-06-29 07:50:13 51°11.175 2°44.827 22.2491 0.007057 0.040387 5.623537
2006-06-29 07:50:19 51°11.168 2°44.791 22.2345 0.007057 0.040387 5.589828
2006-06-29 07:50:24 51°11.162 2°44.761 22.2554 0.007057 0.040387 5.623537
2006-06-29 07:50:29 51°11.156 2°44.731 22.2246 0.007057 0.040387 5.623537
2006-06-29 07:50:33 51°11.151 2°44.706 22.2732 0.007057 0.040388 5.623537
2006-06-29 07:50:39 51°11.144 2°44.671 22.225 0.007057 0.040388 5.623537
2006-06-29 07:50:44 51°11.138 2°44.641 22.2418 0.007057 0.040388 5.623537
2006-06-29 07:50:49 51°11.131 2°44.611 22.2564 0.007057 0.040388 5.589828
2006-06-29 07:50:54 51°11.125 2°44.581 22.2499 0.007057 0.040388 5.623537
2006-06-29 07:51:00 51°11.118 2°44.545 22.2177 0.007057 0.040389 5.623537
2006-06-29 07:51:04 51°11.113 2°44.521 22.2403 0.007057 0.040389 5.589828
2006-06-29 07:51:10 51°11.106 2°44.484 22.2516 0.007057 0.040389 5.589828
2006-06-29 07:51:14 51°11.102 2°44.46 22.229 0.007057 0.040389 5.623537
2006-06-29 07:51:19 51°11.096 2°44.43 22.2289 0.007057 0.04039 5.623537
2006-06-29 07:51:24 51°11.09 2°44.4 22.2729 0.007057 0.040389 5.623537
2006-06-29 07:51:30 51°11.083 2°44.364 22.2478 0.007057 0.04039 5.623537
2006-06-29 07:51:33 51°11.079 2°44.346 22.2757 0.007057 0.040391 5.623537
2006-06-29 07:51:39 51°11.071 2°44.31 22.2655 0.007057 0.040391 5.623537
2006-06-29 07:51:44 51°11.064 2°44.28 22.2495 0.007057 0.040391 5.589828
2006-06-29 07:51:50 51°11.057 2°44.245 22.2393 0.007057 0.040391 5.623537
2006-06-29 07:51:54 51°11.051 2°44.221 22.2399 0.007057 0.040392 5.589828
2006-06-29 07:51:59 51°11.046 2°44.19 22.2408 0.007057 0.040392 5.589828
2006-06-29 07:52:04 51°11.039 2°44.161 22.2658 0.007057 0.040392 5.623537
2006-06-29 07:52:10 51°11.032 2°44.124 22.2701 0.007057 0.040392 5.623537
2006-06-29 07:52:14 51°11.028 2°44.1 22.2245 0.007057 0.040393 5.623537
2006-06-29 07:52:19 51°11.022 2°44.071 22.2879 0.007057 0.040393 5.623537
2006-06-29 07:52:24 51°11.017 2°44.04 22.2234 0.007057 0.040393 5.589828
2006-06-29 07:52:29 51°11.01 2°44.01 22.2928 0.007057 0.040394 5.623537
2006-06-29 07:52:33 51°11.006 2°43.986 22.2596 0.007057 0.040394 5.589828
2006-06-29 07:52:39 51°10.998 2°43.95 22.3001 0.007057 0.040394 5.589828
2006-06-29 07:52:44 51°10.992 2°43.92 22.269 0.007057 0.040395 5.623537
2006-06-29 07:52:49 51°10.986 2°43.891 22.2937 0.007057 0.040395 5.623537
2006-06-29 07:52:54 51°10.981 2°43.861 22.2428 0.007057 0.040396 5.623537
2006-06-29 07:52:59 51°10.974 2°43.831 22.2856 0.007057 0.040396 5.623537
2006-06-29 07:53:04 51°10.969 2°43.801 22.2447 0.007057 0.040396 5.623537
2006-06-29 07:53:10 51°10.961 2°43.765 22.2976 0.007057 0.040396 5.623537
2006-06-29 07:53:14 51°10.957 2°43.741 22.2838 0.007057 0.040397 5.589828
2006-06-29 07:53:19 51°10.95 2°43.712 22.285 0.007057 0.040397 5.623537
2006-06-29 07:53:24 51°10.944 2°43.682 22.2518 0.007057 0.040398 5.623537
2006-06-29 07:53:30 51°10.937 2°43.647 22.2896 0.007057 0.040398 5.589828
2006-06-29 07:53:33 51°10.934 2°43.629 22.2585 0.007057 0.040399 5.623537
2006-06-29 07:53:39 51°10.927 2°43.594 22.3041 0.007057 0.040399 5.623537
2006-06-29 07:53:44 51°10.92 2°43.564 22.2676 0.007057 0.040398 5.589828
2006-06-29 07:53:50 51°10.913 2°43.529 22.3028 0.007057 0.040399 5.623537
2006-06-29 07:53:54 51°10.907 2°43.506 22.3174 0.007057 0.0404 5.623537
2006-06-29 07:53:59 51°10.901 2°43.477 22.2685 0.007057 0.0404 5.623537
2006-06-29 07:54:04 51°10.893 2°43.448 22.2951 0.007057 0.040401 5.623537
2006-06-29 07:54:10 51°10.885 2°43.413 22.2897 0.007057 0.040401 5.623537
2006-06-29 07:54:14 51°10.879 2°43.39 22.29 0.007057 0.040401 5.623537
2006-06-29 07:54:19 51°10.871 2°43.362 22.2862 0.007057 0.040401 5.623537
2006-06-29 07:54:24 51°10.864 2°43.333 22.2823 0.007057 0.040401 5.623537
2006-06-29 07:54:30 51°10.855 2°43.299 22.259 0.007057 0.040402 5.589828
2006-06-29 07:54:34 51°10.849 2°43.276 22.2427 0.007057 0.040402 5.623537
2006-06-29 07:54:40 51°10.842 2°43.241 22.3016 0.007057 0.040402 5.623537
2006-06-29 07:54:44 51°10.837 2°43.217 22.2804 0.007057 0.040402 5.589828
2006-06-29 07:54:48 51°10.832 2°43.194 22.2778 0.007057 0.040403 5.589828
2006-06-29 07:54:54 51°10.826 2°43.158 22.3162 0.007057 0.040403 5.623537
2006-06-29 07:55:00 51°10.819 2°43.122 22.2885 0.007057 0.040403 5.589828
2006-06-29 07:55:04 51°10.814 2°43.099 22.3209 0.007057 0.040404 5.623537
2006-06-29 07:55:08 51°10.809 2°43.076 22.2906 0.007057 0.040404 5.623537
2006-06-29 07:55:14 51°10.8 2°43.04 22.3247 0.007057 0.040405 5.589828
2006-06-29 07:55:20 51°10.792 2°43.005 22.3062 0.007057 0.040405 5.589828
2006-06-29 07:55:24 51°10.786 2°42.982 22.2999 0.007057 0.040405 5.623537
2006-06-29 07:55:29 51°10.779 2°42.954 22.2894 0.007057 0.040406 5.623537
2006-06-29 07:55:33 51°10.772 2°42.931 22.2842 0.007057 0.040406 5.589828
2006-06-29 07:55:39 51°10.763 2°42.896 22.3195 0.007057 0.040406 5.589828
2006-06-29 07:55:44 51°10.755 2°42.868 22.2872 0.007057 0.040407 5.589828
2006-06-29 07:55:50 51°10.746 2°42.833 22.3239 0.007057 0.040407 5.623537
2006-06-29 07:55:54 51°10.74 2°42.81 22.3101 0.007057 0.040408 5.623537
2006-06-29 07:56:00 51°10.731 2°42.775 22.3107 0.007057 0.040408 5.589828
2006-06-29 07:56:04 51°10.725 2°42.752 22.3168 0.007057 0.040408 5.623537
2006-06-29 07:56:08 51°10.72 2°42.729 22.2909 0.007057 0.040408 5.623537
2006-06-29 07:56:14 51°10.711 2°42.694 22.3481 0.007057 0.040409 5.589828
2006-06-29 07:56:19 51°10.705 2°42.665 22.3133 0.007057 0.040409 5.589828
2006-06-29 07:56:24 51°10.698 2°42.636 22.3271 0.007057 0.04041 5.623537
2006-06-29 07:56:30 51°10.691 2°42.6 22.3048 0.007057 0.04041 5.589828
2006-06-29 07:56:33 51°10.686 2°42.582 22.3402 0.007057 0.04041 5.589828
2006-06-29 07:56:38 51°10.681 2°42.553 22.3005 0.007057 0.04041 5.589828
2006-06-29 07:56:44 51°10.673 2°42.518 22.304 0.007057 0.040411 5.589828
2006-06-29 07:56:50 51°10.665 2°42.483 22.3481 0.007057 0.040411 5.589828
2006-06-29 07:56:54 51°10.66 2°42.459 22.302 0.007057 0.040411 5.589828
2006-06-29 07:57:00 51°10.653 2°42.423 22.3405 0.007057 0.040412 5.623537
2006-06-29 07:57:03 51°10.649 2°42.406 22.2875 0.007057 0.040412 5.589828
2006-06-29 07:57:08 51°10.642 2°42.376 22.3509 0.007057 0.040412 5.589828
2006-06-29 07:57:15 51°10.634 2°42.335 22.2991 0.007057 0.040413 5.589828
2006-06-29 07:57:20 51°10.628 2°42.305 22.3543 0.007057 0.040414 5.623537
2006-06-29 07:57:24 51°10.623 2°42.281 22.3317 0.007057 0.040413 5.589828
2006-06-29 07:57:28 51°10.618 2°42.258 22.3593 0.007057 0.040414 5.589828
2006-06-29 07:57:33 51°10.611 2°42.228 22.3424 0.007057 0.040414 5.589828
2006-06-29 07:57:40 51°10.601 2°42.188 22.339 0.007057 0.040414 5.589828
2006-06-29 07:57:44 51°10.595 2°42.165 22.3327 0.007057 0.040415 5.589828
2006-06-29 07:57:50 51°10.585 2°42.131 22.3505 0.007057 0.040415 5.589828
2006-06-29 07:57:54 51°10.58 2°42.108 22.2946 0.007057 0.040415 5.623537
2006-06-29 07:57:59 51°10.571 2°42.08 22.3436 0.007057 0.040416 5.589828
2006-06-29 07:58:04 51°10.565 2°42.051 22.3249 0.007057 0.040416 5.623537
2006-06-29 07:58:10 51°10.556 2°42.016 22.3332 0.007057 0.040416 5.623537
2006-06-29 07:58:14 51°10.55 2°41.993 22.3391 0.007057 0.040416 5.589828
2006-06-29 07:58:18 51°10.545 2°41.97 22.3496 0.007057 0.040417 5.589828
2006-06-29 07:58:24 51°10.537 2°41.934 22.3574 0.007057 0.040417 5.623537
2006-06-29 07:58:30 51°10.53 2°41.898 22.3529 0.007057 0.040417 5.623537
2006-06-29 07:58:34 51°10.524 2°41.875 22.3561 0.007057 0.040418 5.589828
2006-06-29 07:58:39 51°10.518 2°41.846 22.3235 0.007057 0.040418 5.589828
2006-06-29 07:58:43 51°10.513 2°41.822 22.3279 0.007057 0.040418 5.623537
2006-06-29 07:58:50 51°10.505 2°41.779 22.3725 0.007057 0.040418 5.589828
2006-06-29 07:58:53 51°10.5 2°41.762 22.3428 0.007057 0.040418 5.589828
2006-06-29 07:58:58 51°10.494 2°41.733 22.3357 0.007057 0.040419 5.623537
2006-06-29 07:59:04 51°10.487 2°41.697 22.3853 0.007057 0.040419 5.623537
2006-06-29 07:59:10 51°10.478 2°41.662 22.3506 0.007057 0.040419 5.623537
2006-06-29 07:59:13 51°10.475 2°41.644 22.3671 0.007057 0.04042 5.589828
2006-06-29 07:59:18 51°10.468 2°41.614 22.3533 0.007057 0.04042 5.623537
2006-06-29 07:59:24 51°10.46 2°41.58 22.3673 0.007057 0.04042 5.589828
2006-06-29 07:59:30 51°10.452 2°41.545 22.3607 0.007057 0.04042 5.589828
2006-06-29 07:59:34 51°10.445 2°41.523 22.3739 0.007057 0.040421 5.623537
2006-06-29 07:59:40 51°10.437 2°41.488 22.3533 0.007057 0.040421 5.623537
2006-06-29 07:59:44 51°10.431 2°41.465 22.3624 0.007057 0.040421 5.589828
2006-06-29 07:59:49 51°10.423 2°41.436 22.3788 0.007057 0.040421 5.623537
2006-06-29 07:59:54 51°10.416 2°41.408 22.3653 0.007057 0.040422 5.623537
2006-06-29 07:59:59 51°10.408 2°41.379 22.3682 0.007057 0.040423 5.623537
2006-06-29 08:00:04 51°10.4 2°41.351 22.364 0.007057 0.040422 5.589828
2006-06-29 08:00:09 51°10.394 2°41.322 22.3385 0.007057 0.040422 5.589828
2006-06-29 08:00:14 51°10.386 2°41.293 22.3675 0.007057 0.040422 5.589828
2006-06-29 08:00:19 51°10.381 2°41.263 22.3507 0.007057 0.040423 5.623537
2006-06-29 08:00:24 51°10.374 2°41.234 22.3864 0.007057 0.040423 5.589828
2006-06-29 08:00:29 51°10.368 2°41.205 22.3481 0.007057 0.040423 5.589828
2006-06-29 08:00:34 51°10.361 2°41.175 22.3706 0.007057 0.040424 5.589828
2006-06-29 08:00:39 51°10.354 2°41.147 22.3904 0.007057 0.040424 5.589828
2006-06-29 08:00:44 51°10.347 2°41.117 22.3907 0.007057 0.040424 5.623537
2006-06-29 08:00:50 51°10.339 2°41.082 22.3958 0.007057 0.040425 5.623537
2006-06-29 08:00:53 51°10.335 2°41.065 22.3752 0.007057 0.040425 5.589828
2006-06-29 08:00:58 51°10.327 2°41.036 22.3668 0.007057 0.040425 5.589828
2006-06-29 08:01:04 51°10.318 2°41.002 22.3686 0.007057 0.040425 5.623537
2006-06-29 08:01:10 51°10.31 2°40.967 22.3784 0.007057 0.040425 5.623537
2006-06-29 08:01:13 51°10.306 2°40.949 22.3676 0.007057 0.040425 5.589828
2006-06-29 08:01:18 51°10.299 2°40.92 22.3803 0.007057 0.040426 5.589828
2006-06-29 08:01:24 51°10.291 2°40.885 22.3777 0.007057 0.040426 5.623537
2006-06-29 08:01:28 51°10.286 2°40.861 22.4058 0.007057 0.040426 5.589828
2006-06-29 08:01:33 51°10.28 2°40.831 22.4153 0.007057 0.040427 5.623537
2006-06-29 08:01:38 51°10.274 2°40.802 22.4121 0.007057 0.040427 5.623537
2006-06-29 08:01:44 51°10.267 2°40.766 22.4173 0.007057 0.040427 5.623537
2006-06-29 08:01:48 51°10.262 2°40.742 22.3903 0.007057 0.040427 5.589828
2006-06-29 08:01:53 51°10.256 2°40.713 22.4171 0.007057 0.040427 5.589828
2006-06-29 08:02:00 51°10.248 2°40.671 22.3989 0.007057 0.040428 5.623537
2006-06-29 08:02:04 51°10.243 2°40.648 22.3956 0.007057 0.040428 5.589828
2006-06-29 08:02:10 51°10.235 2°40.613 22.4138 0.007057 0.040428 5.589828
2006-06-29 08:02:14 51°10.23 2°40.589 22.3701 0.007057 0.040428 5.623537
2006-06-29 08:02:20 51°10.222 2°40.554 22.4031 0.007057 0.040429 5.623537
2006-06-29 08:02:23 51°10.218 2°40.536 22.4 0.007057 0.040429 5.589828
2006-06-29 08:02:28 51°10.212 2°40.507 22.383 0.007057 0.040429 5.589828
2006-06-29 08:02:33 51°10.205 2°40.478 22.4102 0.007057 0.040429 5.589828
2006-06-29 08:02:38 51°10.199 2°40.449 22.4236 0.007057 0.040429 5.589828
2006-06-29 08:02:44 51°10.191 2°40.414 22.3762 0.007057 0.040429 5.623537
2006-06-29 08:02:48 51°10.185 2°40.39 22.42 0.007057 0.04043 5.623537
2006-06-29 08:02:54 51°10.177 2°40.356 22.4311 0.007057 0.04043 5.589828
2006-06-29 08:02:59 51°10.17 2°40.327 22.4111 0.007057 0.04043 5.623537
2006-06-29 08:03:03 51°10.164 2°40.304 22.3814 0.007057 0.040431 5.589828
2006-06-29 08:03:10 51°10.154 2°40.264 22.4379 0.007057 0.040431 5.589828
2006-06-29 08:03:13 51°10.149 2°40.246 22.4093 0.007057 0.04043 5.589828
2006-06-29 08:03:18 51°10.141 2°40.218 22.427 0.007057 0.040431 5.589828
2006-06-29 08:03:24 51°10.133 2°40.184 22.4192 0.007057 0.040431 5.589828
2006-06-29 08:03:30 51°10.123 2°40.149 22.4142 0.007057 0.040431 5.589828
2006-06-29 08:03:34 51°10.118 2°40.126 22.3858 0.007057 0.040431 5.623537
2006-06-29 08:03:40 51°10.109 2°40.092 22.4137 0.007057 0.040431 5.623537
2006-06-29 08:03:44 51°10.104 2°40.069 22.3836 0.007057 0.040432 5.589828
2006-06-29 08:03:49 51°10.096 2°40.04 22.3983 0.007057 0.040432 5.589828
2006-06-29 08:03:54 51°10.091 2°40.011 22.3914 0.007057 0.040432 5.623537
2006-06-29 08:03:59 51°10.085 2°39.981 22.4179 0.007057 0.040433 5.623537
2006-06-29 08:04:04 51°10.08 2°39.951 22.4319 0.007057 0.040433 5.589828
2006-06-29 08:04:08 51°10.076 2°39.928 22.4297 0.007057 0.040433 5.589828
2006-06-29 08:04:14 51°10.07 2°39.892 22.4466 0.007057 0.040433 5.623537
2006-06-29 08:04:20 51°10.065 2°39.856 22.4064 0.007057 0.040433 5.623537
2006-06-29 08:04:24 51°10.061 2°39.832 22.4402 0.007057 0.040434 5.589828
2006-06-29 08:04:28 51°10.058 2°39.808 22.4379 0.007057 0.040434 5.623537
2006-06-29 08:04:33 51°10.053 2°39.778 22.4164 0.007057 0.040434 5.589828
2006-06-29 08:04:40 51°10.047 2°39.736 22.4347 0.007057 0.040434 5.589828
2006-06-29 08:04:43 51°10.044 2°39.718 22.4062 0.007057 0.040434 5.589828
2006-06-29 08:04:48 51°10.04 2°39.688 22.4215 0.007057 0.040435 5.623537
2006-06-29 08:04:53 51°10.035 2°39.658 22.4219 0.007057 0.040435 5.589828
2006-06-29 08:04:58 51°10.03 2°39.628 22.4433 0.007057 0.040436 5.589828
2006-06-29 08:05:03 51°10.025 2°39.598 22.4376 0.007057 0.040436 5.589828
2006-06-29 08:05:10 51°10.019 2°39.556 22.4509 0.007057 0.040436 5.589828
2006-06-29 08:05:13 51°10.016 2°39.538 22.4283 0.007057 0.040436 5.589828
2006-06-29 08:05:18 51°10.01 2°39.508 22.4538 0.007057 0.040437 5.589828
2006-06-29 08:05:24 51°10.004 2°39.473 22.4229 0.007057 0.040437 5.623537
2006-06-29 08:05:30 51°9.997 2°39.437 22.4527 0.007057 0.040438 5.589828
2006-06-29 08:05:33 51°9.994 2°39.419 22.4543 0.007057 0.040438 5.589828
2006-06-29 08:05:38 51°9.988 2°39.39 22.4399 0.007057 0.040438 5.589828
2006-06-29 08:05:44 51°9.98 2°39.355 22.4614 0.007057 0.040438 5.623537
2006-06-29 08:05:48 51°9.975 2°39.332 22.4298 0.007057 0.040439 5.623537
2006-06-29 08:05:53 51°9.969 2°39.303 22.45 0.007057 0.040439 5.623537
2006-06-29 08:05:58 51°9.963 2°39.273 22.4261 0.007057 0.040439 5.623537
2006-06-29 08:06:04 51°9.956 2°39.238 22.4601 0.007057 0.040439 5.589828
2006-06-29 08:06:09 51°9.951 2°39.208 22.4358 0.007057 0.040439 5.589828
2006-06-29 08:06:14 51°9.946 2°39.179 22.4235 0.007057 0.04044 5.589828
2006-06-29 08:06:20 51°9.941 2°39.143 22.4542 0.007057 0.04044 5.589828
2006-06-29 08:06:23 51°9.938 2°39.125 22.4356 0.007057 0.04044 5.589828
2006-06-29 08:06:28 51°9.933 2°39.095 22.4655 0.007057 0.040441 5.623537
2006-06-29 08:06:33 51°9.929 2°39.065 22.442 0.007057 0.040442 5.623537
2006-06-29 08:06:40 51°9.922 2°39.023 22.4683 0.007057 0.040442 5.623537
2006-06-29 08:06:44 51°9.918 2°38.998 22.4634 0.007057 0.040442 5.589828
2006-06-29 08:06:48 51°9.915 2°38.974 22.4775 0.007057 0.040442 5.623537
2006-06-29 08:06:54 51°9.909 2°38.938 22.4473 0.007057 0.040443 5.623537
2006-06-29 08:06:59 51°9.905 2°38.908 22.4566 0.007057 0.040443 5.623537
2006-06-29 08:07:03 51°9.901 2°38.884 22.4751 0.007057 0.040443 5.589828
2006-06-29 08:07:08 51°9.897 2°38.853 22.4511 0.007057 0.040443 5.589828
2006-06-29 08:07:13 51°9.892 2°38.823 22.4782 0.007057 0.040444 5.589828
2006-06-29 08:07:19 51°9.886 2°38.787 22.4802 0.007057 0.040444 5.623537
2006-06-29 08:07:24 51°9.881 2°38.757 22.4801 0.007057 0.040444 5.623537
2006-06-29 08:07:27 51°9.878 2°38.739 22.4773 0.007057 0.040445 5.589828
2006-06-29 08:07:34 51°9.87 2°38.697 22.4925 0.007057 0.040445 5.589828
2006-06-29 08:07:38 51°9.866 2°38.673 22.4801 0.007057 0.040445 5.589828
2006-06-29 08:07:44 51°9.859 2°38.637 22.4926 0.007057 0.040446 5.589828
2006-06-29 08:07:48 51°9.854 2°38.613 22.4659 0.007057 0.040446 5.589828
2006-06-29 08:07:53 51°9.849 2°38.584 22.4731 0.007057 0.040447 5.589828
2006-06-29 08:08:00 51°9.841 2°38.542 22.464 0.007057 0.040447 5.589828
2006-06-29 08:08:04 51°9.837 2°38.518 22.4873 0.007057 0.040447 5.623537
2006-06-29 08:08:10 51°9.831 2°38.482 22.4863 0.007057 0.040447 5.623537
2006-06-29 08:08:14 51°9.827 2°38.457 22.4843 0.007057 0.040447 5.623537
2006-06-29 08:08:19 51°9.822 2°38.427 22.4693 0.007057 0.040448 5.623537
2006-06-29 08:08:23 51°9.819 2°38.403 22.4986 0.007057 0.040448 5.623537
2006-06-29 08:08:28 51°9.815 2°38.372 22.4776 0.007057 0.040448 5.589828
2006-06-29 08:08:33 51°9.81 2°38.342 22.5042 0.007057 0.040449 5.623537
2006-06-29 08:08:40 51°9.805 2°38.299 22.4577 0.007057 0.040449 5.623537
2006-06-29 08:08:44 51°9.802 2°38.274 22.5111 0.007057 0.040449 5.589828
2006-06-29 08:08:48 51°9.8 2°38.25 22.4606 0.007057 0.040449 5.589828
2006-06-29 08:08:53 51°9.795 2°38.219 22.5127 0.007057 0.04045 5.589828
2006-06-29 08:09:00 51°9.79 2°38.176 22.502 0.007057 0.04045 5.589828
2006-06-29 08:09:03 51°9.788 2°38.158 22.5032 0.007057 0.04045 5.589828
2006-06-29 08:09:08 51°9.784 2°38.127 22.507 0.007057 0.04045 5.589828
2006-06-29 08:09:13 51°9.779 2°38.096 22.5201 0.007057 0.040451 5.623537
2006-06-29 08:09:20 51°9.774 2°38.054 22.4891 0.007057 0.040451 5.589828
2006-06-29 08:09:24 51°9.769 2°38.03 22.5247 0.007057 0.040451 5.623537
2006-06-29 08:09:30 51°9.764 2°37.993 22.517 0.007057 0.040451 5.623537
2006-06-29 08:09:34 51°9.76 2°37.968 22.5083 0.007057 0.040452 5.623537
2006-06-29 08:09:39 51°9.755 2°37.938 22.5163 0.007057 0.040452 5.623537
2006-06-29 08:09:43 51°9.752 2°37.914 22.5026 0.007057 0.040452 5.589828
2006-06-29 08:09:50 51°9.745 2°37.871 22.51 0.007057 0.040453 5.623537
2006-06-29 08:09:53 51°9.743 2°37.853 22.4876 0.007057 0.040453 5.589828
2006-06-29 08:09:58 51°9.738 2°37.822 22.5084 0.007057 0.040453 5.589828
2006-06-29 08:10:03 51°9.735 2°37.791 22.4939 0.007057 0.040453 5.589828
2006-06-29 08:10:10 51°9.729 2°37.748 22.5188 0.007057 0.040453 5.589828
2006-06-29 08:10:13 51°9.728 2°37.729 22.5156 0.007057 0.040454 5.623537
2006-06-29 08:10:18 51°9.724 2°37.698 22.5168 0.007057 0.040454 5.623537
2006-06-29 08:10:24 51°9.721 2°37.661 22.5237 0.007057 0.040454 5.623537
2006-06-29 08:10:28 51°9.719 2°37.637 22.53 0.007057 0.040454 5.589828
2006-06-29 08:10:33 51°9.716 2°37.605 22.5129 0.007057 0.040455 5.623537
2006-06-29 08:10:38 51°9.713 2°37.575 22.5165 0.007057 0.040455 5.623537
2006-06-29 08:10:44 51°9.71 2°37.538 22.5081 0.007057 0.040455 5.623537
2006-06-29 08:10:48 51°9.707 2°37.513 22.5173 0.007057 0.040455 5.623537
2006-06-29 08:10:53 51°9.705 2°37.481 22.5394 0.007057 0.040455 5.589828
2006-06-29 08:11:00 51°9.701 2°37.438 22.507 0.007057 0.040456 5.623537
2006-06-29 08:11:03 51°9.699 2°37.42 22.5315 0.007057 0.040456 5.589828
2006-06-29 08:11:09 51°9.696 2°37.383 22.511 0.007057 0.040456 5.589828
2006-06-29 08:11:14 51°9.693 2°37.352 22.5375 0.007057 0.040456 5.589828
2006-06-29 08:11:20 51°9.689 2°37.315 22.5249 0.007057 0.040457 5.589828
2006-06-29 08:11:24 51°9.685 2°37.29 22.5297 0.007057 0.040457 5.589828
2006-06-29 08:11:28 51°9.683 2°37.266 22.4977 0.007057 0.040457 5.589828
2006-06-29 08:11:33 51°9.678 2°37.235 22.5382 0.007057 0.040457 5.589828
2006-06-29 08:11:40 51°9.674 2°37.191 22.5026 0.007057 0.040457 5.589828
2006-06-29 08:11:44 51°9.67 2°37.167 22.5347 0.007057 0.040457 5.589828
2006-06-29 08:11:48 51°9.669 2°37.142 22.5316 0.007057 0.040458 5.589828
2006-06-29 08:11:54 51°9.664 2°37.105 22.5482 0.007057 0.040458 5.589828
2006-06-29 08:11:59 51°9.661 2°37.074 22.5137 0.007057 0.040458 5.623537
2006-06-29 08:12:03 51°9.658 2°37.049 22.5464 0.007057 0.040458 5.589828
2006-06-29 08:12:10 51°9.654 2°37.005 22.5265 0.007057 0.040458 5.589828
2006-06-29 08:12:13 51°9.652 2°36.987 22.5435 0.007057 0.040458 5.623537
2006-06-29 08:12:18 51°9.649 2°36.956 22.5439 0.007057 0.040458 5.589828
2006-06-29 08:12:24 51°9.644 2°36.919 22.553 0.007057 0.040459 5.623537
2006-06-29 08:12:30 51°9.64 2°36.881 22.5032 0.007057 0.040458 5.589828
2006-06-29 08:12:34 51°9.637 2°36.857 22.5478 0.007057 0.040459 5.623537
2006-06-29 08:12:40 51°9.633 2°36.819 22.5276 0.007057 0.040459 5.623537
2006-06-29 08:12:44 51°9.63 2°36.795 22.5528 0.007057 0.040459 5.623537
2006-06-29 08:12:48 51°9.628 2°36.77 22.5026 0.007057 0.040459 5.623537
2006-06-29 08:12:53 51°9.624 2°36.738 22.5521 0.007057 0.040459 5.589828
2006-06-29 08:12:59 51°9.621 2°36.701 22.5353 0.007057 0.04046 5.623537
2006-06-29 08:13:04 51°9.618 2°36.67 22.5442 0.007057 0.04046 5.623537
2006-06-29 08:13:08 51°9.616 2°36.645 22.5349 0.007057 0.04046 5.623537
2006-06-29 08:13:13 51°9.613 2°36.613 22.556 0.007057 0.04046 5.589828
2006-06-29 08:13:20 51°9.611 2°36.57 22.5416 0.007057 0.04046 5.623537
2006-06-29 08:13:24 51°9.61 2°36.545 22.5413 0.007057 0.04046 5.623537
2006-06-29 08:13:30 51°9.609 2°36.507 22.5469 0.007057 0.040461 5.589828
2006-06-29 08:13:34 51°9.609 2°36.483 22.5511 0.007057 0.040461 5.589828
2006-06-29 08:13:40 51°9.608 2°36.445 22.5399 0.007057 0.040461 5.589828
2006-06-29 08:13:44 51°9.609 2°36.42 22.5478 0.007057 0.040461 5.589828
2006-06-29 08:13:48 51°9.608 2°36.395 22.5769 0.007057 0.040461 5.589828
2006-06-29 08:13:53 51°9.609 2°36.364 22.5353 0.007057 0.040461 5.589828
2006-06-29 08:13:59 51°9.609 2°36.326 22.567 0.007057 0.040461 5.589828
2006-06-29 08:14:04 51°9.61 2°36.295 22.5261 0.007057 0.040461 5.589828
2006-06-29 08:14:07 51°9.61 2°36.276 22.5769 0.007057 0.040461 5.589828
2006-06-29 08:14:14 51°9.612 2°36.232 22.5482 0.007057 0.040462 5.623537
2006-06-29 08:14:18 51°9.613 2°36.207 22.5566 0.007057 0.040462 5.623537
2006-06-29 08:14:24 51°9.615 2°36.169 22.5704 0.007057 0.040462 5.589828
2006-06-29 08:14:28 51°9.616 2°36.144 22.5476 0.007057 0.040463 5.623537
2006-06-29 08:14:33 51°9.618 2°36.113 22.5829 0.007057 0.040462 5.623537
2006-06-29 08:14:39 51°9.62 2°36.075 22.5571 0.007057 0.040462 5.623537
2006-06-29 08:14:44 51°9.623 2°36.045 22.5717 0.007057 0.040463 5.623537
2006-06-29 08:14:50 51°9.627 2°36.007 22.5523 0.007057 0.040463 5.589828
2006-06-29 08:14:54 51°9.63 2°35.982 22.5711 0.007057 0.040463 5.589828
2006-06-29 08:14:58 51°9.633 2°35.958 22.5524 0.007057 0.040463 5.589828
2006-06-29 08:15:03 51°9.638 2°35.928 22.5682 0.007057 0.040463 5.589828
2006-06-29 08:15:09 51°9.645 2°35.892 22.5683 0.007057 0.040463 5.589828
2006-06-29 08:15:14 51°9.65 2°35.863 22.5562 0.007057 0.040464 5.589828
2006-06-29 08:15:20 51°9.658 2°35.828 22.5341 0.007057 0.040464 5.589828
2006-06-29 08:15:24 51°9.665 2°35.806 22.5712 0.007057 0.040464 5.623537
2006-06-29 08:15:28 51°9.672 2°35.784 22.58 0.007057 0.040464 5.623537
2006-06-29 08:15:34 51°9.684 2°35.753 22.5808 0.007057 0.040464 5.589828
2006-06-29 08:15:40 51°9.696 2°35.722 22.5873 0.007057 0.040464 5.589828
2006-06-29 08:15:44 51°9.705 2°35.702 22.5763 0.007057 0.040464 5.556118
2006-06-29 08:15:48 51°9.714 2°35.682 22.5627 0.007057 0.040465 5.623537
2006-06-29 08:15:53 51°9.725 2°35.658 22.5788 0.007057 0.040465 5.589828
2006-06-29 08:16:00 51°9.742 2°35.625 22.5484 0.007057 0.040465 5.623537
2006-06-29 08:16:03 51°9.749 2°35.612 22.5828 0.007057 0.040465 5.589828
2006-06-29 08:16:09 51°9.766 2°35.588 22.5916 0.007057 0.040465 5.589828
2006-06-29 08:16:14 51°9.78 2°35.57 22.5845 0.007057 0.040466 5.623537
2006-06-29 08:16:19 51°9.795 2°35.552 22.5894 0.007057 0.040466 5.623537
2006-06-29 08:16:24 51°9.81 2°35.536 22.5841 0.007057 0.040467 5.589828
2006-06-29 08:16:30 51°9.829 2°35.516 22.5917 0.007057 0.040467 5.556118
2006-06-29 08:16:34 51°9.841 2°35.503 22.6055 0.007057 0.040467 5.589828
2006-06-29 08:16:40 51°9.859 2°35.485 22.598 0.007057 0.040467 5.589828
2006-06-29 08:16:44 51°9.872 2°35.472 22.5806 0.007057 0.040467 5.589828
2006-06-29 08:16:48 51°9.885 2°35.462 22.604 0.007057 0.040468 5.623537
2006-06-29 08:16:54 51°9.904 2°35.447 22.5953 0.007057 0.040468 5.589828
2006-06-29 08:16:59 51°9.921 2°35.435 22.609 0.007057 0.040468 5.589828
2006-06-29 08:17:04 51°9.937 2°35.425 22.6105 0.007057 0.040468 5.589828
2006-06-29 08:17:10 51°9.958 2°35.413 22.6016 0.007057 0.040468 5.589828
2006-06-29 08:17:14 51°9.971 2°35.405 22.6052 0.007057 0.040469 5.589828
2006-06-29 08:17:20 51°9.991 2°35.395 22.6025 0.007057 0.040469 5.623537
2006-06-29 08:17:24 51°10.005 2°35.389 22.6124 0.007057 0.040469 5.589828
2006-06-29 08:17:28 51°10.018 2°35.385 22.6006 0.007057 0.04047 5.589828
2006-06-29 08:17:34 51°10.038 2°35.379 22.6143 0.007057 0.04047 5.589828
2006-06-29 08:17:40 51°10.058 2°35.377 22.5959 0.007057 0.04047 5.589828
2006-06-29 08:17:44 51°10.071 2°35.375 22.5935 0.007057 0.04047 5.623537
2006-06-29 08:17:50 51°10.091 2°35.376 22.6081 0.007057 0.040471 5.623537
2006-06-29 08:17:54 51°10.104 2°35.378 22.621 0.007057 0.040471 5.589828
2006-06-29 08:18:00 51°10.123 2°35.384 22.4016 0.007057 0.040471 5.589828
2006-06-29 08:18:03 51°10.132 2°35.387 18.7593 0.007057 0.040472 5.556118
2006-06-29 08:18:10 51°10.154 2°35.397 18.0986 0.007057 0.040472 5.556118
2006-06-29 08:18:14 51°10.167 2°35.403 17.9375 0.007057 0.040487 5.589828
2006-06-29 08:18:19 51°10.182 2°35.412 17.7172 0.007057 0.04058 5.589828
2006-06-29 08:18:23 51°10.194 2°35.418 17.6233 1.774423 11.261315 9.129315
2006-06-29 08:18:28 51°10.21 2°35.429 17.5304 3.974578 26.72725 8.28658
2006-06-29 08:18:34 51°10.227 2°35.441 17.4763 3.937596 26.798627 7.14046
2006-06-29 08:18:39 51°10.242 2°35.452 17.4406 3.937596 26.798627 7.14046
2006-06-29 08:18:44 51°10.257 2°35.464 17.3706 4.195622 29.71123 7.275298
2006-06-29 08:18:48 51°10.269 2°35.472 17.3607 4.475958 32.767026 6.735947
2006-06-29 08:18:54 51°10.287 2°35.486 17.2761 4.47892 33.348266 6.499982
2006-06-29 08:18:59 51°10.302 2°35.497 17.2403 4.489047 33.74051 6.432563
2006-06-29 08:19:04 51°10.316 2°35.509 17.2001 4.481882 33.918132 6.365144
2006-06-29 08:19:10 51°10.334 2°35.524 17.158 4.481882 33.918132 6.365144
2006-06-29 08:19:14 51°10.345 2°35.533 17.128 4.514465 34.357163 6.398853
2006-06-29 08:19:20 51°10.363 2°35.547 17.1074 4.498651 34.329843 6.398853
2006-06-29 08:19:24 51°10.375 2°35.557 17.0956 4.451944 34.016631 6.365144
2006-06-29 08:19:29 51°10.389 2°35.568 17.0561 4.48695 34.382063 6.297725
2006-06-29 08:19:34 51°10.404 2°35.58 17.0261 4.455742 34.18618 6.264016
2006-06-29 08:19:39 51°10.419 2°35.591 17.0045 4.455742 34.18618 6.264016
2006-06-29 08:19:44 51°10.434 2°35.602 17.0197 4.48031 34.449326 6.196597
2006-06-29 08:19:50 51°10.451 2°35.615 16.9918 4.469872 34.399133 6.196597
2006-06-29 08:19:54 51°10.463 2°35.623 16.9611 4.471455 34.46126 6.196597
2006-06-29 08:20:00 51°10.481 2°35.636 16.9589 4.459963 34.398156 6.129178
2006-06-29 08:20:03 51°10.49 2°35.643 16.9515 4.457644 34.410502 6.095469
2006-06-29 08:20:08 51°10.505 2°35.655 16.9466 4.457644 34.410502 6.095469
2006-06-29 08:20:14 51°10.522 2°35.668 16.9445 4.438244 34.272688 6.095469
2006-06-29 08:20:19 51°10.536 2°35.681 16.9429 4.432024 34.242514 6.02805
2006-06-29 08:20:23 51°10.548 2°35.69 16.9369 4.453217 34.445865 5.994341
2006-06-29 08:20:28 51°10.562 2°35.703 16.9232 4.423907 34.214533 6.02805
2006-06-29 08:20:34 51°10.579 2°35.717 16.9106 4.41737 34.175342 5.994341
2006-06-29 08:20:40 51°10.596 2°35.732 16.9122 4.41737 34.175342 5.994341
2006-06-29 08:20:44 51°10.608 2°35.742 16.9012 4.421904 34.227668 5.960631
2006-06-29 08:20:48 51°10.62 2°35.751 16.9047 4.45364 34.514081 5.960631
2006-06-29 08:20:54 51°10.637 2°35.765 16.9116 4.457435 34.557082 5.926922
2006-06-29 08:20:59 51°10.652 2°35.775 16.8968 4.451953 34.518291 5.926922
2006-06-29 08:21:04 51°10.666 2°35.786 16.8946 4.455116 34.552044 5.893212
2006-06-29 08:21:10 51°10.684 2°35.799 16.911 4.455116 34.552044 5.893212
2006-06-29 08:21:14 51°10.696 2°35.807 16.9072 4.438247 34.417507 5.960631
2006-06-29 08:21:19 51°10.712 2°35.816 16.9029 4.451637 34.540077 5.960631
2006-06-29 08:21:24 51°10.727 2°35.825 16.9056 4.430234 34.364234 5.960631
2006-06-29 08:21:30 51°10.745 2°35.836 16.8925 4.44742 34.514136 5.994341
2006-06-29 08:21:34 51°10.758 2°35.844 16.892 4.449845 34.540245 6.02805
2006-06-29 08:21:39 51°10.773 2°35.853 16.898 4.449845 34.540245 6.02805
2006-06-29 08:21:44 51°10.788 2°35.863 16.9073 4.44974 34.543739 6.02805
2006-06-29 08:21:48 51°10.8 2°35.871 16.9024 4.451216 34.556569 6.061759
2006-06-29 08:21:54 51°10.817 2°35.886 16.8914 4.44742 34.526726 6.095469
2006-06-29 08:22:00 51°10.834 2°35.901 16.8842 4.433503 34.406416 6.095469
2006-06-29 08:22:04 51°10.845 2°35.912 16.89 4.440356 34.470991 6.162888
2006-06-29 08:22:07 51°10.854 2°35.919 16.8919 4.440356 34.470991 6.162888
2006-06-29 08:22:14 51°10.873 2°35.938 16.8819 4.44858 34.54563 6.230306
2006-06-29 08:22:20 51°10.889 2°35.954 16.8792 4.443519 34.501631 6.230306
2006-06-29 08:22:23 51°10.897 2°35.962 16.8783 4.442254 34.488745 6.297725
2006-06-29 08:22:30 51°10.917 2°35.981 16.8775 4.440462 34.474423 6.297725
2006-06-29 08:22:34 51°10.928 2°35.993 16.8773 4.444679 34.519271 6.365144
2006-06-29 08:22:40 51°10.944 2°36.009 16.8717 4.444679 34.519271 6.365144
2006-06-29 08:22:44 51°10.955 2°36.02 16.8671 4.44605 34.53119 6.398853
2006-06-29 08:22:50 51°10.972 2°36.036 16.8719 4.444679 34.519271 6.432563
2006-06-29 08:22:54 51°10.983 2°36.047 16.8712 4.446788 34.542651 6.466272
2006-06-29 08:23:00 51°11 2°36.063 16.869 4.441622 34.501501 6.499982
2006-06-29 08:23:04 51°11.01 2°36.073 16.869 4.440146 34.489924 6.533691
2006-06-29 08:23:08 51°11.022 2°36.083 16.8683 4.440146 34.489924 6.533691
2006-06-29 08:23:14 51°11.039 2°36.098 16.8718 4.44236 34.513591 6.5674
2006-06-29 08:23:19 51°11.053 2°36.111 16.8713 4.433398 34.438165 6.5674
2006-06-29 08:23:24 51°11.067 2°36.124 16.8737 4.437932 34.482001 6.634819
2006-06-29 08:23:30 51°11.084 2°36.14 16.8688 4.44004 34.500345 6.634819
2006-06-29 08:23:34 51°11.095 2°36.151 16.8734 4.440251 34.5047 6.668529
2006-06-29 08:23:38 51°11.106 2°36.162 16.8726 4.440251 34.5047 6.668529
2006-06-29 08:23:44 51°11.122 2°36.179 16.8689 4.439197 34.496157 6.668529
2006-06-29 08:23:48 51°11.133 2°36.19 16.869 4.431922 34.432246 6.735947
2006-06-29 08:23:54 51°11.149 2°36.207 16.8678 4.428443 34.401988 6.735947
2006-06-29 08:23:59 51°11.163 2°36.221 16.8628 4.426229 34.38399 6.735947
2006-06-29 08:24:04 51°11.176 2°36.235 16.8633 4.438881 34.492775 6.769657
2006-06-29 08:24:10 51°11.192 2°36.252 16.8687 4.438881 34.492775 6.769657
2006-06-29 08:24:14 51°11.203 2°36.264 16.8593 4.436456 34.47168 6.803366
2006-06-29 08:24:20 51°11.22 2°36.28 16.8617 4.435823 34.466807 6.837076
2006-06-29 08:24:24 51°11.23 2°36.291 16.8579 4.440462 34.509056 6.837076
2006-06-29 08:24:28 51°11.241 2°36.302 16.851 4.436983 34.480674 6.870785
2006-06-29 08:24:35 51°11.26 2°36.321 16.8514 4.433504 34.451035 6.870785
2006-06-29 08:24:40 51°11.274 2°36.335 16.8605 4.433504 34.451035 6.870785
2006-06-29 08:24:44 51°11.285 2°36.346 16.8611 4.43983 34.506703 6.870785
2006-06-29 08:24:49 51°11.299 2°36.36 16.852 4.434347 34.460891 6.904494
2006-06-29 08:24:54 51°11.312 2°36.375 16.8564 4.426545 34.396793 6.938204
2006-06-29 08:24:59 51°11.326 2°36.388 16.8637 4.441728 34.53205 6.971913
2006-06-29 08:25:04 51°11.339 2°36.403 16.8502 4.441411 34.53119 6.971913
2006-06-29 08:25:08 51°11.35 2°36.414 16.8521 4.441411 34.53119 6.971913
2006-06-29 08:25:14 51°11.367 2°36.429 16.8526 4.437405 34.497578 7.039332
2006-06-29 08:25:20 51°11.384 2°36.444 16.8548 4.439935 34.518972 7.039332
2006-06-29 08:25:24 51°11.395 2°36.454 16.8489 4.440673 34.524135 7.073042
2006-06-29 08:25:30 51°11.412 2°36.468 16.8522 4.441095 34.53033 7.106751
2006-06-29 08:25:34 51°11.424 2°36.477 16.8436 4.437827 34.501879 7.106751
2006-06-29 08:25:39 51°11.438 2°36.489 16.8458 4.437827 34.501879 7.106751
2006-06-29 08:25:44 51°11.453 2°36.501 16.8474 4.439724 34.520291 7.17417
2006-06-29 08:25:48 51°11.464 2°36.51 16.8485 4.432449 34.45949 7.17417
2006-06-29 08:25:54 51°11.481 2°36.525 16.8464 4.432133 34.457997 7.17417
2006-06-29 08:25:59 51°11.495 2°36.537 16.8447 4.431922 34.458681 7.207879
2006-06-29 08:26:04 51°11.509 2°36.551 16.8521 4.440041 34.528094 7.241589
2006-06-29 08:26:10 51°11.525 2°36.567 16.8406 4.440041 34.528094 7.241589
2006-06-29 08:26:14 51°11.536 2°36.578 16.8461 4.434769 34.484091 7.241589
2006-06-29 08:26:19 51°11.55 2°36.592 16.8351 4.424648 34.395998 7.241589
2006-06-29 08:26:23 51°11.56 2°36.603 16.8421 4.420957 34.363889 7.275298
2006-06-29 08:26:28 51°11.574 2°36.618 16.8442 4.423066 34.383493 7.275298
2006-06-29 08:26:34 51°11.59 2°36.635 16.8288 4.442888 34.556671 7.342717
2006-06-29 08:26:40 51°11.606 2°36.651 16.8332 4.442888 34.556671 7.342717
2006-06-29 08:26:44 51°11.617 2°36.661 16.8365 4.433609 34.475886 7.342717
2006-06-29 08:26:48 51°11.628 2°36.672 16.8303 4.429498 34.441983 7.376426
2006-06-29 08:26:54 51°11.645 2°36.687 16.8338 4.442677 34.558625 7.443845
2006-06-29 08:27:00 51°11.662 2°36.702 16.8352 4.443309 34.565399 7.477554
2006-06-29 08:27:04 51°11.673 2°36.712 16.8264 4.442255 34.555584 7.477554
2006-06-29 08:27:10 51°11.69 2°36.727 16.8283 4.442255 34.555584 7.477554
2006-06-29 08:27:14 51°11.702 2°36.737 16.8285 4.443731 34.572234 7.511264
2006-06-29 08:27:20 51°11.718 2°36.752 16.8291 4.443837 34.576314 7.544973
2006-06-29 08:27:23 51°11.727 2°36.759 16.8369 4.442361 34.564087 7.578683
2006-06-29 08:27:30 51°11.746 2°36.778 16.8274 4.440463 34.550083 7.578683
2006-06-29 08:27:34 51°11.757 2°36.79 16.8321 4.441728 34.561738 7.612392
2006-06-29 08:27:39 51°11.77 2°36.804 16.835 4.441728 34.561738 7.612392
2006-06-29 08:27:43 51°11.781 2°36.815 16.8429 4.423066 34.400474 7.612392
2006-06-29 08:27:48 51°11.794 2°36.829 16.8394 4.433293 34.489528 7.646101
2006-06-29 08:27:54 51°11.81 2°36.847 16.8419 4.42644 34.431109 7.646101
2006-06-29 08:28:00 51°11.826 2°36.863 16.8522 4.426124 34.427725 7.679811
2006-06-29 08:28:04 51°11.837 2°36.874 16.8438 4.433926 34.495038 7.71352
2006-06-29 08:28:10 51°11.853 2°36.891 16.8473 4.433926 34.495038 7.71352
2006-06-29 08:28:14 51°11.864 2°36.902 16.8468 4.440041 34.547041 7.74723
2006-06-29 08:28:19 51°11.877 2°36.915 16.8541 4.426018 34.423028 7.780939
2006-06-29 08:28:23 51°11.888 2°36.927 16.8519 4.432028 34.474095 7.780939
2006-06-29 08:28:30 51°11.907 2°36.947 16.8572 4.429392 34.449253 7.814648
2006-06-29 08:28:34 51°11.918 2°36.958 16.8535 4.432661 34.473298 7.882067
2006-06-29 08:28:40 51°11.934 2°36.974 16.8566 4.432661 34.473298 7.882067
2006-06-29 08:28:43 51°11.942 2°36.983 16.8578 4.421801 34.379398 7.882067
2006-06-29 08:28:48 51°11.956 2°36.996 16.8587 4.440146 34.537851 7.949486
2006-06-29 08:28:54 51°11.972 2°37.013 16.8632 4.441517 34.549156 7.983195
2006-06-29 08:28:59 51°11.985 2°37.026 16.865 4.442677 34.557993 8.016905
2006-06-29 08:29:03 51°11.996 2°37.038 16.8676 4.444891 34.576013 8.016905
2006-06-29 08:29:08 51°12.01 2°37.051 16.8722 4.444891 34.576013 8.016905
2006-06-29 08:29:14 51°12.027 2°37.068 16.8765 4.444364 34.569525 8.084324
2006-06-29 08:29:20 51°12.043 2°37.084 16.8789 4.444258 34.568607 8.118033
2006-06-29 08:29:24 51°12.054 2°37.095 16.882 4.441728 34.543413 8.151742
2006-06-29 08:29:30 51°12.07 2°37.111 16.8764 4.434453 34.477556 8.151742
2006-06-29 08:29:34 51°12.081 2°37.122 16.8828 4.443625 34.557411 8.185452
2006-06-29 08:29:39 51°12.094 2°37.135 16.8783 4.443625 34.557411 8.185452
2006-06-29 08:29:44 51°12.109 2°37.149 16.8774 4.444785 34.566246 8.219161
2006-06-29 08:29:48 51°12.12 2°37.159 16.8799 4.43867 34.50859 8.252871
2006-06-29 08:29:54 51°12.136 2°37.175 16.8787 4.444785 34.559929 8.320289
2006-06-29 08:29:59 51°12.15 2°37.188 16.8798 4.444996 34.557975 8.28658